| time (UTC) | temp F | wind direction | speed MPH | gust MPH | rain 1hr in | rain 24hr in | rain mn in | humidity % | barometer mb |
| 20260506100004 | 75 | 117 | 0.0 | 2.0 | 0.00 | 0.00 | 0.00 | 95 | 1011.5 |
| 20260506095904 | 75 | 117 | 1.0 | 2.0 | 0.00 | 0.00 | 0.00 | 95 | 1011.4 |
| 20260506095802 | 75 | 117 | 1.0 | 2.0 | 0.00 | 0.00 | 0.00 | 95 | 1011.4 |
| 20260506095702 | 75 | 89 | 1.0 | 2.0 | 0.00 | 0.00 | 0.00 | 95 | 1011.5 |
| 20260506095604 | 75 | 63 | 1.0 | 2.0 | 0.00 | 0.00 | 0.00 | 95 | 1011.4 |
| 20260506095504 | 75 | 63 | 0.0 | 1.0 | 0.00 | 0.00 | 0.00 | 95 | 1011.4 |
| 20260506095402 | 75 | 63 | 0.0 | 1.0 | 0.00 | 0.00 | 0.00 | 95 | 1011.4 |
| 20260506095305 | 75 | 63 | 0.0 | 1.0 | 0.00 | 0.00 | 0.00 | 95 | 1011.4 |
| 20260506095203 | 75 | 63 | 0.0 | 3.0 | 0.00 | 0.00 | 0.00 | 95 | 1011.3 |
| 20260506095103 | 75 | 63 | 0.0 | 3.0 | 0.00 | 0.00 | 0.00 | 95 | 1011.3 |
| 20260506095003 | 75 | 63 | 0.0 | 3.0 | 0.00 | 0.00 | 0.00 | 95 | 1011.3 |
| 20260506094903 | 75 | 63 | 0.0 | 3.0 | 0.00 | 0.00 | 0.00 | 95 | 1011.2 |
| 20260506094803 | 75 | 63 | 0.0 | 3.0 | 0.00 | 0.00 | 0.00 | 95 | 1011.3 |
| 20260506094702 | 75 | 63 | 0.0 | 3.0 | 0.00 | 0.00 | 0.00 | 95 | 1011.2 |
| 20260506094601 | 75 | 63 | 1.0 | 3.0 | 0.00 | 0.00 | 0.00 | 95 | 1011.3 |
| 20260506094503 | 75 | 63 | 0.0 | 3.0 | 0.00 | 0.00 | 0.00 | 95 | 1011.4 |
| 20260506094401 | 75 | 63 | 1.0 | 3.0 | 0.00 | 0.00 | 0.00 | 95 | 1011.3 |
| 20260506094300 | 75 | 63 | 1.0 | 3.0 | 0.00 | 0.00 | 0.00 | 95 | 1011.3 |
| 20260506094158 | 75 | 63 | 0.0 | 2.0 | 0.00 | 0.00 | 0.00 | 95 | 1011.4 |
| 20260506094057 | 75 | 63 | 1.0 | 2.0 | 0.00 | 0.00 | 0.00 | 95 | 1011.3 |
| 20260506093956 | 75 | 63 | 1.0 | 2.0 | 0.00 | 0.00 | 0.00 | 95 | 1011.3 |
| 20260506093854 | 75 | 63 | 0.0 | 1.0 | 0.00 | 0.00 | 0.00 | 95 | 1011.4 |
| 20260506093752 | 75 | 63 | 0.0 | 1.0 | 0.00 | 0.00 | 0.00 | 94 | 1011.4 |
| 20260506093650 | 75 | 23 | 0.0 | 1.0 | 0.00 | 0.00 | 0.00 | 94 | 1011.4 |
| 20260506093549 | 75 | 23 | 0.0 | 1.0 | 0.00 | 0.00 | 0.00 | 94 | 1011.4 |
| 20260506093448 | 76 | 23 | 0.0 | 1.0 | 0.00 | 0.00 | 0.00 | 94 | 1011.4 |
| 20260506093346 | 76 | 23 | 0.0 | 3.0 | 0.00 | 0.00 | 0.00 | 94 | 1011.4 |
| 20260506093245 | 76 | 23 | 0.0 | 3.0 | 0.00 | 0.00 | 0.00 | 94 | 1011.4 |
| 20260506093143 | 76 | 23 | 0.0 | 3.0 | 0.00 | 0.00 | 0.00 | 94 | 1011.4 |
| 20260506093042 | 76 | 23 | 0.0 | 3.0 | 0.00 | 0.00 | 0.00 | 94 | 1011.4 |
| 20260506092940 | 76 | 23 | 0.0 | 3.0 | 0.00 | 0.00 | 0.00 | 94 | 1011.4 |
| 20260506092836 | 76 | 23 | 0.0 | 3.0 | 0.00 | 0.00 | 0.00 | 94 | 1011.4 |
| 20260506092735 | 76 | 21 | 0.0 | 3.0 | 0.00 | 0.00 | 0.00 | 94 | 1011.3 |
| 20260506092632 | 76 | 21 | 0.0 | 3.0 | 0.00 | 0.00 | 0.00 | 94 | 1011.3 |
| 20260506092531 | 76 | 21 | 1.0 | 3.0 | 0.00 | 0.00 | 0.00 | 94 | 1011.3 |
| 20260506092432 | 76 | 21 | 1.0 | 3.0 | 0.00 | 0.00 | 0.00 | 94 | 1011.3 |
| 20260506092331 | 76 | 131 | 1.0 | 3.0 | 0.00 | 0.00 | 0.00 | 94 | 1011.3 |
| 20260506092231 | 76 | 131 | 1.0 | 3.0 | 0.00 | 0.00 | 0.00 | 94 | 1011.3 |
| 20260506092131 | 76 | 131 | 1.0 | 3.0 | 0.00 | 0.00 | 0.00 | 94 | 1011.3 |
| 20260506092032 | 76 | 131 | 1.0 | 3.0 | 0.00 | 0.00 | 0.00 | 94 | 1011.3 |
| 20260506091931 | 76 | 131 | 1.0 | 3.0 | 0.00 | 0.00 | 0.00 | 94 | 1011.3 |
| 20260506091831 | 76 | 131 | 1.0 | 4.0 | 0.00 | 0.00 | 0.00 | 94 | 1011.4 |
| 20260506091732 | 76 | 212 | 1.0 | 4.0 | 0.00 | 0.00 | 0.00 | 94 | 1011.4 |
| 20260506091606 | 76 | 212 | 1.0 | 4.0 | 0.00 | 0.00 | 0.00 | 94 | 1011.4 |
| 20260506091506 | 76 | 212 | 1.0 | 4.0 | 0.00 | 0.00 | 0.00 | 94 | 1011.5 |
| 20260506091406 | 76 | 212 | 1.0 | 4.0 | 0.00 | 0.00 | 0.00 | 94 | 1011.5 |
| 20260506091304 | 76 | 212 | 1.0 | 4.0 | 0.00 | 0.00 | 0.00 | 94 | 1011.6 |
| 20260506091206 | 76 | 213 | 1.0 | 4.0 | 0.00 | 0.00 | 0.00 | 94 | 1011.6 |
| 20260506091106 | 76 | 202 | 1.0 | 4.0 | 0.00 | 0.00 | 0.00 | 94 | 1011.5 |
| 20260506091007 | 76 | 226 | 1.0 | 4.0 | 0.00 | 0.00 | 0.00 | 94 | 1011.5 |
| 20260506090906 | 76 | 1 | 2.0 | 4.0 | 0.00 | 0.00 | 0.00 | 94 | 1011.5 |
| 20260506090806 | 76 | 75 | 1.0 | 4.0 | 0.00 | 0.00 | 0.00 | 94 | 1011.5 |
| 20260506090705 | 76 | 75 | 1.0 | 4.0 | 0.00 | 0.00 | 0.00 | 94 | 1011.5 |
| 20260506090607 | 76 | 131 | 1.0 | 4.0 | 0.00 | 0.00 | 0.00 | 94 | 1011.6 |
| 20260506090505 | 76 | 131 | 1.0 | 4.0 | 0.00 | 0.00 | 0.00 | 94 | 1011.6 |
| 20260506090405 | 76 | 124 | 0.0 | 4.0 | 0.00 | 0.00 | 0.00 | 94 | 1011.6 |
| 20260506090307 | 76 | 113 | 0.0 | 3.0 | 0.00 | 0.00 | 0.00 | 94 | 1011.6 |
| 20260506090205 | 76 | 113 | 1.0 | 3.0 | 0.00 | 0.00 | 0.00 | 94 | 1011.6 |
| 20260506090105 | 76 | 111 | 1.0 | 3.0 | 0.00 | 0.00 | 0.00 | 94 | 1011.7 |
| 20260506090008 | 76 | 111 | 2.0 | 3.0 | 0.00 | 0.00 | 0.00 | 94 | 1011.7 |
| 20260506085905 | 76 | 111 | 1.0 | 3.0 | 0.00 | 0.00 | 0.00 | 94 | 1011.6 |
| 20260506085806 | 76 | 123 | 1.0 | 4.0 | 0.00 | 0.00 | 0.00 | 93 | 1011.6 |
| 20260506085705 | 76 | 123 | 1.0 | 4.0 | 0.00 | 0.00 | 0.00 | 93 | 1011.7 |
| 20260506085608 | 76 | 161 | 1.0 | 4.0 | 0.00 | 0.00 | 0.00 | 93 | 1011.6 |
| 20260506085505 | 76 | 154 | 2.0 | 4.0 | 0.00 | 0.00 | 0.00 | 93 | 1011.7 |
| 20260506085406 | 76 | 168 | 1.0 | 4.0 | 0.00 | 0.00 | 0.00 | 93 | 1011.6 |
| 20260506085306 | 76 | 172 | 1.0 | 4.0 | 0.00 | 0.00 | 0.00 | 93 | 1011.6 |
| 20260506085205 | 76 | 175 | 1.0 | 4.0 | 0.00 | 0.00 | 0.00 | 93 | 1011.6 |
| 20260506085106 | 76 | 114 | 1.0 | 7.0 | 0.00 | 0.00 | 0.00 | 93 | 1011.6 |
| 20260506085005 | 76 | 116 | 1.0 | 7.0 | 0.00 | 0.00 | 0.00 | 93 | 1011.6 |
| 20260506084907 | 76 | 116 | 2.0 | 7.0 | 0.00 | 0.00 | 0.00 | 93 | 1011.5 |
| 20260506084807 | 76 | 137 | 1.0 | 7.0 | 0.00 | 0.00 | 0.00 | 93 | 1011.6 |
| 20260506084705 | 76 | 137 | 1.0 | 7.0 | 0.00 | 0.00 | 0.00 | 93 | 1011.6 |
| 20260506084605 | 76 | 138 | 1.0 | 7.0 | 0.00 | 0.00 | 0.00 | 93 | 1011.6 |
| 20260506084505 | 76 | 137 | 1.0 | 7.0 | 0.00 | 0.00 | 0.00 | 93 | 1011.6 |
| 20260506084405 | 76 | 135 | 2.0 | 7.0 | 0.00 | 0.00 | 0.00 | 93 | 1011.6 |
| 20260506084304 | 76 | 135 | 2.0 | 7.0 | 0.00 | 0.00 | 0.00 | 93 | 1011.7 |
| 20260506084207 | 76 | 148 | 2.0 | 7.0 | 0.00 | 0.00 | 0.00 | 93 | 1011.7 |
| 20260506084105 | 76 | 140 | 1.0 | 4.0 | 0.00 | 0.00 | 0.00 | 93 | 1011.7 |
| 20260506084005 | 76 | 141 | 0.0 | 4.0 | 0.00 | 0.00 | 0.00 | 93 | 1011.7 |
| 20260506083906 | 76 | 141 | 0.0 | 4.0 | 0.00 | 0.00 | 0.00 | 93 | 1011.7 |
| 20260506083805 | 76 | 141 | 2.0 | 4.0 | 0.00 | 0.00 | 0.00 | 93 | 1011.7 |
| 20260506083705 | 76 | 141 | 2.0 | 4.0 | 0.00 | 0.00 | 0.00 | 93 | 1011.7 |
| 20260506083606 | 76 | 154 | 2.0 | 4.0 | 0.00 | 0.00 | 0.00 | 93 | 1011.7 |
| 20260506083506 | 76 | 340 | 2.0 | 4.0 | 0.00 | 0.00 | 0.00 | 93 | 1011.7 |
| 20260506083405 | 76 | 310 | 1.0 | 4.0 | 0.00 | 0.00 | 0.00 | 93 | 1011.7 |
| 20260506083304 | 76 | 303 | 0.0 | 4.0 | 0.00 | 0.00 | 0.00 | 93 | 1011.8 |
| 20260506083205 | 76 | 302 | 1.0 | 4.0 | 0.00 | 0.00 | 0.00 | 93 | 1011.8 |
| 20260506083105 | 76 | 302 | 2.0 | 4.0 | 0.00 | 0.00 | 0.00 | 93 | 1011.7 |
| 20260506083005 | 76 | 121 | 1.0 | 4.0 | 0.00 | 0.00 | 0.00 | 93 | 1011.7 |
| 20260506082905 | 76 | 30 | 1.0 | 4.0 | 0.00 | 0.00 | 0.00 | 93 | 1011.7 |
| 20260506082805 | 76 | 30 | 1.0 | 4.0 | 0.00 | 0.00 | 0.00 | 93 | 1011.7 |
| 20260506082704 | 76 | 0 | 1.0 | 4.0 | 0.00 | 0.00 | 0.00 | 93 | 1011.7 |
| 20260506082605 | 76 | 152 | 1.0 | 4.0 | 0.00 | 0.00 | 0.00 | 93 | 1011.8 |
| 20260506082505 | 76 | 152 | 1.0 | 4.0 | 0.00 | 0.00 | 0.00 | 93 | 1011.9 |
| 20260506082402 | 77 | 152 | 0.0 | 4.0 | 0.00 | 0.00 | 0.00 | 93 | 1011.8 |
| 20260506082305 | 77 | 192 | 0.0 | 4.0 | 0.00 | 0.00 | 0.00 | 93 | 1011.8 |
| 20260506082202 | 77 | 192 | 2.0 | 4.0 | 0.00 | 0.00 | 0.00 | 93 | 1011.8 |
| 20260506082103 | 77 | 196 | 2.0 | 4.0 | 0.00 | 0.00 | 0.00 | 93 | 1011.7 |
| 20260506082006 | 77 | 103 | 1.0 | 3.0 | 0.00 | 0.00 | 0.00 | 93 | 1011.8 |
| 20260506081902 | 77 | 113 | 1.0 | 3.0 | 0.00 | 0.00 | 0.00 | 93 | 1011.8 |
| 20260506081801 | 77 | 114 | 1.0 | 3.0 | 0.00 | 0.00 | 0.00 | 93 | 1011.7 |
| 20260506081704 | 77 | 113 | 1.0 | 6.0 | 0.00 | 0.00 | 0.00 | 93 | 1011.7 |
| 20260506081602 | 77 | 113 | 1.0 | 6.0 | 0.00 | 0.00 | 0.00 | 93 | 1011.8 |
| 20260506081502 | 77 | 113 | 1.0 | 6.0 | 0.00 | 0.00 | 0.00 | 93 | 1011.7 |
| 20260506081403 | 77 | 113 | 1.0 | 6.0 | 0.00 | 0.00 | 0.00 | 93 | 1011.8 |
| 20260506081304 | 77 | 113 | 1.0 | 6.0 | 0.00 | 0.00 | 0.00 | 93 | 1011.9 |
| 20260506081203 | 77 | 113 | 1.0 | 6.0 | 0.00 | 0.00 | 0.00 | 93 | 1011.8 |
| 20260506081103 | 77 | 114 | 2.0 | 6.0 | 0.00 | 0.00 | 0.00 | 93 | 1011.9 |
| 20260506081004 | 77 | 134 | 2.0 | 6.0 | 0.00 | 0.00 | 0.00 | 93 | 1011.9 |
| 20260506080902 | 77 | 134 | 2.0 | 6.0 | 0.00 | 0.00 | 0.00 | 93 | 1011.8 |
| 20260506080802 | 77 | 134 | 2.0 | 6.0 | 0.00 | 0.00 | 0.00 | 93 | 1011.8 |
| 20260506080702 | 77 | 123 | 1.0 | 4.0 | 0.00 | 0.00 | 0.00 | 93 | 1011.9 |
| 20260506080603 | 77 | 124 | 1.0 | 4.0 | 0.00 | 0.00 | 0.00 | 93 | 1011.8 |
| 20260506080502 | 77 | 121 | 1.0 | 4.0 | 0.00 | 0.00 | 0.00 | 93 | 1011.8 |
| 20260506080403 | 77 | 121 | 1.0 | 4.0 | 0.00 | 0.00 | 0.00 | 93 | 1011.9 |
| 20260506080303 | 77 | 127 | 0.0 | 7.0 | 0.00 | 0.00 | 0.00 | 92 | 1011.9 |
| 20260506080203 | 77 | 127 | 0.0 | 7.0 | 0.00 | 0.00 | 0.00 | 93 | 1011.9 |
| 20260506073504 | 77 | 97 | 1.0 | 3.0 | 0.00 | 0.00 | 0.00 | 92 | 1012.1 |
| 20260506073404 | 77 | 97 | 1.0 | 4.0 | 0.00 | 0.00 | 0.00 | 92 | 1012.1 |
| 20260506073302 | 77 | 97 | 1.0 | 4.0 | 0.00 | 0.00 | 0.00 | 92 | 1012.1 |
| 20260506073203 | 77 | 97 | 1.0 | 4.0 | 0.00 | 0.00 | 0.00 | 92 | 1012.1 |
| 20260506073103 | 77 | 97 | 1.0 | 4.0 | 0.00 | 0.00 | 0.00 | 92 | 1012.1 |
| 20260506073004 | 77 | 96 | 1.0 | 4.0 | 0.00 | 0.00 | 0.00 | 92 | 1012.2 |
| 20260506072903 | 77 | 96 | 1.0 | 4.0 | 0.00 | 0.00 | 0.00 | 92 | 1012.2 |
| 20260506072802 | 77 | 118 | 1.0 | 4.0 | 0.00 | 0.00 | 0.00 | 92 | 1012.1 |
| 20260506072703 | 77 | 128 | 1.0 | 4.0 | 0.00 | 0.00 | 0.00 | 92 | 1012.1 |
| 20260506072602 | 77 | 128 | 2.0 | 4.0 | 0.00 | 0.00 | 0.00 | 92 | 1012.2 |
| 20260506072503 | 77 | 127 | 2.0 | 4.0 | 0.00 | 0.00 | 0.00 | 92 | 1012.1 |
| 20260506072403 | 77 | 109 | 1.0 | 4.0 | 0.00 | 0.00 | 0.00 | 92 | 1012.1 |
| 20260506072305 | 77 | 125 | 1.0 | 6.0 | 0.00 | 0.00 | 0.00 | 92 | 1012.1 |
| 20260506072204 | 77 | 127 | 2.0 | 6.0 | 0.00 | 0.00 | 0.00 | 92 | 1012.1 |
| 20260506072032 | 77 | 127 | 2.0 | 6.0 | 0.00 | 0.00 | 0.00 | 92 | 1012.0 |
| 20260506071931 | 77 | 165 | 2.0 | 6.0 | 0.00 | 0.00 | 0.00 | 92 | 1012.2 |
| 20260506071831 | 77 | 127 | 1.0 | 6.0 | 0.00 | 0.00 | 0.00 | 92 | 1012.3 |
| 20260506071733 | 77 | 134 | 1.0 | 6.0 | 0.00 | 0.00 | 0.00 | 92 | 1012.3 |
| 20260506071631 | 77 | 135 | 1.0 | 6.0 | 0.00 | 0.00 | 0.00 | 92 | 1012.4 |
| 20260506071528 | 77 | 135 | 2.0 | 6.0 | 0.00 | 0.00 | 0.00 | 92 | 1012.3 |
| 20260506071429 | 77 | 135 | 2.0 | 6.0 | 0.00 | 0.00 | 0.00 | 92 | 1012.3 |
| 20260506071327 | 77 | 175 | 2.0 | 5.0 | 0.00 | 0.00 | 0.00 | 92 | 1012.3 |
| 20260506071224 | 77 | 117 | 2.0 | 5.0 | 0.00 | 0.00 | 0.00 | 92 | 1012.3 |
| 20260506071124 | 77 | 121 | 1.0 | 5.0 | 0.00 | 0.00 | 0.00 | 92 | 1012.3 |
| 20260506071021 | 77 | 125 | 1.0 | 5.0 | 0.00 | 0.00 | 0.00 | 92 | 1012.4 |
| 20260506070919 | 77 | 137 | 1.0 | 5.0 | 0.00 | 0.00 | 0.00 | 92 | 1012.4 |
| 20260506070819 | 77 | 45 | 2.0 | 5.0 | 0.00 | 0.00 | 0.00 | 92 | 1012.4 |
| 20260506070717 | 77 | 44 | 2.0 | 5.0 | 0.00 | 0.00 | 0.00 | 92 | 1012.4 |
| 20260506070616 | 77 | 130 | 2.0 | 5.0 | 0.00 | 0.00 | 0.00 | 92 | 1012.4 |
| 20260506070514 | 77 | 159 | 2.0 | 5.0 | 0.00 | 0.00 | 0.00 | 92 | 1012.5 |
| 20260506070409 | 77 | 169 | 1.0 | 4.0 | 0.00 | 0.00 | 0.00 | 92 | 1012.5 |
| 20260506070307 | 77 | 175 | 1.0 | 4.0 | 0.00 | 0.00 | 0.00 | 92 | 1012.5 |
| 20260506070205 | 77 | 286 | 1.0 | 4.0 | 0.00 | 0.00 | 0.00 | 92 | 1012.5 |
| 20260506070108 | 77 | 286 | 0.0 | 4.0 | 0.00 | 0.00 | 0.00 | 92 | 1012.5 |
| 20260506062511 | 77 | 138 | 1.0 | 6.0 | 0.00 | 0.00 | 0.00 | 92 | 1012.7 |
| 20260506062405 | 77 | 138 | 1.0 | 6.0 | 0.00 | 0.00 | 0.00 | 92 | 1012.6 |
| 20260506062305 | 77 | 137 | 0.0 | 6.0 | 0.00 | 0.00 | 0.00 | 92 | 1012.6 |
| 20260506062203 | 77 | 137 | 2.0 | 6.0 | 0.00 | 0.00 | 0.00 | 92 | 1012.7 |
| 20260506062104 | 77 | 138 | 3.0 | 6.0 | 0.00 | 0.00 | 0.00 | 92 | 1012.7 |
| 20260506062004 | 77 | 140 | 2.0 | 6.0 | 0.00 | 0.00 | 0.00 | 92 | 1012.7 |
| 20260506061903 | 77 | 154 | 1.0 | 4.0 | 0.00 | 0.00 | 0.00 | 92 | 1012.7 |
| 20260506061802 | 77 | 159 | 1.0 | 4.0 | 0.00 | 0.00 | 0.00 | 92 | 1012.7 |
| 20260506061703 | 77 | 159 | 1.0 | 4.0 | 0.00 | 0.00 | 0.00 | 92 | 1012.8 |
| 20260506061602 | 77 | 159 | 2.0 | 4.0 | 0.00 | 0.00 | 0.00 | 93 | 1012.8 |
| 20260506061502 | 77 | 180 | 1.0 | 4.0 | 0.00 | 0.00 | 0.00 | 93 | 1012.7 |
| 20260506061402 | 77 | 130 | 1.0 | 2.0 | 0.00 | 0.00 | 0.00 | 93 | 1012.8 |
| 20260506061303 | 77 | 130 | 1.0 | 2.0 | 0.00 | 0.00 | 0.00 | 93 | 1012.8 |
| 20260506061203 | 77 | 130 | 1.0 | 2.0 | 0.00 | 0.00 | 0.00 | 93 | 1012.7 |
| 20260506061102 | 77 | 130 | 0.0 | 4.0 | 0.00 | 0.00 | 0.00 | 92 | 1012.7 |
| 20260506061001 | 77 | 130 | 0.0 | 5.0 | 0.00 | 0.00 | 0.00 | 92 | 1012.6 |
| 20260506060902 | 77 | 130 | 1.0 | 5.0 | 0.00 | 0.00 | 0.00 | 93 | 1012.6 |
| 20260506060803 | 77 | 130 | 1.0 | 5.0 | 0.00 | 0.00 | 0.00 | 93 | 1012.6 |
| 20260506060702 | 77 | 130 | 1.0 | 5.0 | 0.00 | 0.00 | 0.00 | 93 | 1012.6 |
| 20260506060603 | 77 | 130 | 1.0 | 5.0 | 0.00 | 0.00 | 0.00 | 93 | 1012.7 |
| 20260506060502 | 77 | 130 | 1.0 | 5.0 | 0.00 | 0.00 | 0.00 | 93 | 1012.6 |
| 20260506060401 | 77 | 130 | 0.0 | 5.0 | 0.00 | 0.00 | 0.00 | 92 | 1012.6 |
| 20260506060302 | 77 | 130 | 1.0 | 5.0 | 0.00 | 0.00 | 0.00 | 92 | 1012.6 |
| 20260506060202 | 77 | 117 | 2.0 | 5.0 | 0.00 | 0.00 | 0.00 | 92 | 1012.6 |
| 20260506051401 | 77 | 75 | 1.0 | 3.0 | 0.00 | 0.00 | 0.00 | 92 | 1012.4 |
| 20260506051301 | 77 | 75 | 1.0 | 3.0 | 0.00 | 0.00 | 0.00 | 92 | 1012.5 |
| 20260506051201 | 77 | 165 | 1.0 | 3.0 | 0.00 | 0.00 | 0.00 | 92 | 1012.4 |
| 20260506051101 | 77 | 165 | 1.0 | 3.0 | 0.00 | 0.00 | 0.00 | 92 | 1012.4 |
| 20260506051000 | 77 | 166 | 1.0 | 3.0 | 0.00 | 0.00 | 0.00 | 92 | 1012.3 |
| 20260506050859 | 77 | 166 | 1.0 | 3.0 | 0.00 | 0.00 | 0.00 | 92 | 1012.4 |
| 20260506050800 | 77 | 168 | 1.0 | 3.0 | 0.00 | 0.00 | 0.00 | 92 | 1012.5 |
| 20260506050701 | 77 | 169 | 1.0 | 3.0 | 0.00 | 0.00 | 0.00 | 92 | 1012.6 |
| 20260506050600 | 77 | 178 | 1.0 | 3.0 | 0.00 | 0.00 | 0.00 | 92 | 1012.5 |
| 20260506050500 | 77 | 178 | 1.0 | 3.0 | 0.00 | 0.00 | 0.00 | 92 | 1012.6 |
| 20260506050402 | 77 | 206 | 1.0 | 3.0 | 0.00 | 0.00 | 0.00 | 92 | 1012.6 |
| 20260506050300 | 77 | 131 | 1.0 | 3.0 | 0.00 | 0.00 | 0.00 | 92 | 1012.7 |
| 20260506050200 | 77 | 131 | 1.0 | 3.0 | 0.00 | 0.00 | 0.00 | 92 | 1012.6 |
| 20260506045100 | 77 | 121 | 0.0 | 4.0 | 0.00 | 0.00 | 0.00 | 92 | 1012.6 |
| 20260506044959 | 77 | 121 | 0.0 | 4.0 | 0.00 | 0.00 | 0.00 | 92 | 1012.6 |
| 20260506044901 | 77 | 121 | 1.0 | 4.0 | 0.00 | 0.00 | 0.00 | 92 | 1012.6 |
| 20260506044800 | 77 | 121 | 1.0 | 4.0 | 0.00 | 0.00 | 0.00 | 92 | 1012.7 |
| 20260506044659 | 77 | 121 | 2.0 | 4.0 | 0.00 | 0.00 | 0.00 | 92 | 1012.6 |
| 20260506044602 | 77 | 124 | 2.0 | 4.0 | 0.00 | 0.00 | 0.00 | 92 | 1012.6 |
| 20260506044459 | 77 | 128 | 1.0 | 4.0 | 0.00 | 0.00 | 0.00 | 92 | 1012.6 |
| 20260506044400 | 77 | 258 | 1.0 | 2.0 | 0.00 | 0.00 | 0.00 | 92 | 1012.7 |
| 20260506044301 | 0 | 0.0 | 4.0 | 0.00 | 0.00 | 0.00 | 1012.7 | ||
| 20260506044201 | 0 | 0.0 | 4.0 | 0.00 | 0.00 | 0.00 | 1012.7 | ||
| 20260506044101 | 0 | 0.0 | 4.0 | 0.00 | 0.00 | 0.00 | 1012.7 | ||
| 20260506043958 | 0 | 0.0 | 4.0 | 0.00 | 0.00 | 0.00 | 1012.7 | ||
| 20260506043859 | 77 | 262 | 2.0 | 4.0 | 0.00 | 0.00 | 0.00 | 92 | 1012.8 |
| 20260506043759 | 77 | 262 | 2.0 | 4.0 | 0.00 | 0.00 | 0.00 | 92 | 1012.8 |
| 20260506043658 | 77 | 262 | 2.0 | 4.0 | 0.00 | 0.00 | 0.00 | 92 | 1012.7 |
| 20260506043558 | 77 | 262 | 2.0 | 4.0 | 0.00 | 0.00 | 0.00 | 92 | 1012.8 |
| 20260506043500 | 77 | 262 | 2.0 | 4.0 | 0.00 | 0.00 | 0.00 | 92 | 1012.7 |
| 20260506043359 | 77 | 262 | 1.0 | 4.0 | 0.00 | 0.00 | 0.00 | 92 | 1012.7 |
| 20260506043257 | 77 | 128 | 1.0 | 4.0 | 0.00 | 0.00 | 0.00 | 92 | 1012.7 |
| 20260506043159 | 77 | 128 | 1.0 | 4.0 | 0.00 | 0.00 | 0.00 | 92 | 1012.6 |
| 20260506043058 | 77 | 128 | 2.0 | 4.0 | 0.00 | 0.00 | 0.00 | 92 | 1012.6 |
| 20260506042957 | 77 | 137 | 1.0 | 4.0 | 0.00 | 0.00 | 0.00 | 92 | 1012.6 |
| 20260506042858 | 77 | 137 | 1.0 | 4.0 | 0.00 | 0.00 | 0.00 | 92 | 1012.6 |
| 20260506042758 | 77 | 137 | 0.0 | 4.0 | 0.00 | 0.00 | 0.00 | 92 | 1012.6 |
| 20260506042658 | 77 | 137 | 1.0 | 4.0 | 0.00 | 0.00 | 0.00 | 92 | 1012.7 |
| 20260506042558 | 77 | 137 | 2.0 | 4.0 | 0.00 | 0.00 | 0.00 | 92 | 1012.6 |
| 20260506042457 | 77 | 83 | 2.0 | 4.0 | 0.00 | 0.00 | 0.00 | 92 | 1012.5 |
| 20260506042359 | 77 | 133 | 2.0 | 3.0 | 0.00 | 0.00 | 0.00 | 92 | 1012.6 |
| 20260506042257 | 77 | 133 | 2.0 | 3.0 | 0.00 | 0.00 | 0.00 | 92 | 1012.5 |
| 20260506042200 | 77 | 133 | 1.0 | 3.0 | 0.00 | 0.00 | 0.00 | 92 | 1012.5 |
| 20260506042059 | 77 | 117 | 1.0 | 4.0 | 0.00 | 0.00 | 0.00 | 92 | 1012.5 |
| 20260506041958 | 77 | 120 | 1.0 | 4.0 | 0.00 | 0.00 | 0.00 | 92 | 1012.5 |
| 20260506041857 | 77 | 137 | 1.0 | 4.0 | 0.00 | 0.00 | 0.00 | 92 | 1012.5 |
| 20260506041757 | 77 | 137 | 1.0 | 4.0 | 0.00 | 0.00 | 0.00 | 92 | 1012.5 |
| 20260506041659 | 77 | 137 | 0.0 | 4.0 | 0.00 | 0.00 | 0.00 | 92 | 1012.5 |
| 20260506041557 | 77 | 137 | 1.0 | 4.0 | 0.00 | 0.00 | 0.00 | 92 | 1012.3 |
| 20260506041457 | 77 | 137 | 1.0 | 4.0 | 0.00 | 0.00 | 0.00 | 92 | 1012.4 |
| 20260506041358 | 77 | 79 | 0.0 | 4.0 | 0.00 | 0.00 | 0.00 | 92 | 1012.3 |
| 20260506041257 | 77 | 79 | 1.0 | 4.0 | 0.00 | 0.00 | 0.00 | 92 | 1012.4 |
| 20260506041157 | 77 | 79 | 1.0 | 4.0 | 0.00 | 0.00 | 0.00 | 91 | 1012.3 |
| 20260506041056 | 77 | 54 | 1.0 | 4.0 | 0.00 | 0.00 | 0.00 | 91 | 1012.4 |
| 20260506040959 | 77 | 54 | 0.0 | 4.0 | 0.00 | 0.00 | 0.00 | 91 | 1012.4 |
| 20260506040859 | 77 | 54 | 1.0 | 4.0 | 0.00 | 0.00 | 0.00 | 91 | 1012.4 |
| 20260506040757 | 77 | 54 | 1.0 | 4.0 | 0.00 | 0.00 | 0.00 | 91 | 1012.4 |
| 20260506040657 | 77 | 52 | 1.0 | 4.0 | 0.00 | 0.00 | 0.00 | 91 | 1012.4 |
| 20260506040556 | 77 | 48 | 1.0 | 4.0 | 0.00 | 0.00 | 0.00 | 91 | 1012.5 |
| 20260506040457 | 77 | 51 | 1.0 | 4.0 | 0.00 | 0.00 | 0.00 | 91 | 1012.5 |
| 20260506040357 | 77 | 34 | 2.0 | 4.0 | 0.00 | 0.00 | 0.00 | 91 | 1012.5 |
| 20260506040256 | 77 | 20 | 2.0 | 4.0 | 0.00 | 0.00 | 0.00 | 91 | 1012.5 |
| 20260506040157 | 77 | 172 | 1.0 | 3.0 | 0.00 | 0.00 | 0.00 | 91 | 1012.5 |
| 20260506040056 | 77 | 121 | 1.0 | 4.0 | 0.00 | 0.00 | 0.00 | 91 | 1012.5 |
| 20260506035958 | 77 | 121 | 1.0 | 4.0 | 0.00 | 0.00 | 0.00 | 91 | 1012.5 |
| 20260506035857 | 78 | 159 | 1.0 | 4.0 | 0.00 | 0.00 | 0.00 | 91 | 1012.5 |
| 20260506035756 | 78 | 165 | 1.0 | 4.0 | 0.00 | 0.00 | 0.00 | 91 | 1012.5 |
| 20260506035657 | 78 | 193 | 1.0 | 4.0 | 0.00 | 0.00 | 0.00 | 90 | 1012.6 |
| 20260506035558 | 78 | 193 | 2.0 | 4.0 | 0.00 | 0.00 | 0.00 | 90 | 1012.6 |
| 20260506035456 | 78 | 107 | 1.0 | 4.0 | 0.00 | 0.00 | 0.00 | 90 | 1012.5 |
| 20260506035359 | 78 | 264 | 1.0 | 4.0 | 0.00 | 0.00 | 0.00 | 90 | 1012.6 |
| 20260506035257 | 78 | 127 | 1.0 | 4.0 | 0.00 | 0.00 | 0.00 | 90 | 1012.5 |
| 20260506035158 | 78 | 127 | 1.0 | 4.0 | 0.00 | 0.00 | 0.00 | 90 | 1012.5 |
| 20260506035056 | 78 | 127 | 1.0 | 7.0 | 0.00 | 0.00 | 0.00 | 90 | 1012.5 |
| 20260506034956 | 78 | 206 | 1.0 | 7.0 | 0.00 | 0.00 | 0.00 | 90 | 1012.5 |
| 20260506034858 | 78 | 251 | 1.0 | 7.0 | 0.00 | 0.00 | 0.00 | 90 | 1012.5 |
| 20260506034753 | 78 | 303 | 1.0 | 7.0 | 0.00 | 0.00 | 0.00 | 90 | 1012.5 |
| 20260506034650 | 78 | 303 | 2.0 | 7.0 | 0.00 | 0.00 | 0.00 | 90 | 1012.5 |
| 20260506034550 | 78 | 303 | 2.0 | 7.0 | 0.00 | 0.00 | 0.00 | 90 | 1012.4 |
| 20260506034447 | 78 | 123 | 1.0 | 7.0 | 0.00 | 0.00 | 0.00 | 90 | 1012.4 |
| 20260506034344 | 78 | 124 | 2.0 | 7.0 | 0.00 | 0.00 | 0.00 | 90 | 1012.4 |
| 20260506034236 | 78 | 127 | 2.0 | 7.0 | 0.00 | 0.00 | 0.00 | 90 | 1012.4 |
| 20260506034132 | 78 | 141 | 1.0 | 5.0 | 0.00 | 0.00 | 0.00 | 90 | 1012.4 |
| 20260506034032 | 78 | 175 | 1.0 | 5.0 | 0.00 | 0.00 | 0.00 | 90 | 1012.3 |
| 20260506033933 | 78 | 175 | 2.0 | 5.0 | 0.00 | 0.00 | 0.00 | 90 | 1012.3 |
| 20260506033832 | 78 | 176 | 2.0 | 5.0 | 0.00 | 0.00 | 0.00 | 90 | 1012.3 |
| 20260506033732 | 78 | 121 | 1.0 | 5.0 | 0.00 | 0.00 | 0.00 | 90 | 1012.3 |
| 20260506033632 | 78 | 210 | 2.0 | 5.0 | 0.00 | 0.00 | 0.00 | 90 | 1012.3 |
| 20260506033531 | 78 | 210 | 2.0 | 5.0 | 0.00 | 0.00 | 0.00 | 90 | 1012.2 |
| 20260506033432 | 78 | 179 | 2.0 | 5.0 | 0.00 | 0.00 | 0.00 | 90 | 1012.1 |
| 20260506033332 | 78 | 133 | 2.0 | 4.0 | 0.00 | 0.00 | 0.00 | 90 | 1012.1 |
| 20260506033232 | 78 | 166 | 1.0 | 4.0 | 0.00 | 0.00 | 0.00 | 90 | 1012.2 |
| 20260506033132 | 78 | 87 | 2.0 | 4.0 | 0.00 | 0.00 | 0.00 | 90 | 1012.1 |
| 20260506033033 | 78 | 79 | 1.0 | 4.0 | 0.00 | 0.00 | 0.00 | 90 | 1012.1 |
| 20260506032930 | 78 | 134 | 1.0 | 4.0 | 0.00 | 0.00 | 0.00 | 90 | 1012.1 |
| 20260506032833 | 78 | 137 | 2.0 | 5.0 | 0.00 | 0.00 | 0.00 | 90 | 1012.0 |
| 20260506032731 | 78 | 142 | 2.0 | 5.0 | 0.00 | 0.00 | 0.00 | 90 | 1012.1 |
| 20260506032631 | 78 | 75 | 1.0 | 5.0 | 0.00 | 0.00 | 0.00 | 90 | 1012.1 |
| 20260506032531 | 78 | 73 | 1.0 | 5.0 | 0.00 | 0.00 | 0.00 | 90 | 1012.0 |
| 20260506032432 | 78 | 75 | 1.0 | 5.0 | 0.00 | 0.00 | 0.00 | 90 | 1012.1 |
| 20260506032332 | 78 | 75 | 1.0 | 5.0 | 0.00 | 0.00 | 0.00 | 90 | 1012.1 |
| 20260506032232 | 78 | 73 | 1.0 | 5.0 | 0.00 | 0.00 | 0.00 | 90 | 1012.1 |
| 20260506032133 | 78 | 73 | 1.0 | 5.0 | 0.00 | 0.00 | 0.00 | 90 | 1012.0 |
| 20260506032032 | 78 | 73 | 2.0 | 5.0 | 0.00 | 0.00 | 0.00 | 90 | 1012.0 |
| 20260506031931 | 78 | 0 | 2.0 | 5.0 | 0.00 | 0.00 | 0.00 | 89 | 1012.0 |
| 20260506031832 | 78 | 144 | 2.0 | 5.0 | 0.00 | 0.00 | 0.00 | 89 | 1012.0 |
| 20260506031731 | 78 | 62 | 2.0 | 5.0 | 0.00 | 0.00 | 0.00 | 89 | 1011.9 |
| 20260506031631 | 78 | 121 | 2.0 | 5.0 | 0.00 | 0.00 | 0.00 | 89 | 1011.9 |
| 20260506031532 | 78 | 137 | 2.0 | 5.0 | 0.00 | 0.00 | 0.00 | 89 | 1012.0 |
| 20260506031432 | 78 | 137 | 2.0 | 6.0 | 0.00 | 0.00 | 0.00 | 89 | 1012.0 |
| 20260506031331 | 78 | 131 | 2.0 | 6.0 | 0.00 | 0.00 | 0.00 | 89 | 1012.0 |
| 20260506031231 | 78 | 92 | 2.0 | 6.0 | 0.00 | 0.00 | 0.00 | 89 | 1012.0 |
| 20260506031132 | 78 | 59 | 2.0 | 6.0 | 0.00 | 0.00 | 0.00 | 89 | 1012.0 |
| 20260506031032 | 78 | 133 | 2.0 | 6.0 | 0.00 | 0.00 | 0.00 | 89 | 1012.0 |
| 20260506030932 | 78 | 134 | 2.0 | 6.0 | 0.00 | 0.00 | 0.00 | 89 | 1012.0 |
| 20260506030834 | 78 | 134 | 2.0 | 6.0 | 0.00 | 0.00 | 0.00 | 89 | 1012.0 |
| 20260506030733 | 78 | 102 | 2.0 | 6.0 | 0.00 | 0.00 | 0.00 | 89 | 1012.1 |
| 20260506030633 | 78 | 130 | 3.0 | 6.0 | 0.00 | 0.00 | 0.00 | 89 | 1012.1 |
| 20260506030532 | 78 | 265 | 2.0 | 6.0 | 0.00 | 0.00 | 0.00 | 89 | 1012.1 |
| 20260506030431 | 78 | 0 | 1.0 | 4.0 | 0.00 | 0.00 | 0.00 | 89 | 1012.1 |
| 20260506030331 | 78 | 0 | 1.0 | 4.0 | 0.00 | 0.00 | 0.00 | 89 | 1012.1 |
| 20260506030231 | 78 | 0 | 1.0 | 5.0 | 0.00 | 0.00 | 0.00 | 89 | 1012.0 |
| 20260506030132 | 78 | 0 | 1.0 | 5.0 | 0.00 | 0.00 | 0.00 | 89 | 1012.0 |
| 20260506030032 | 78 | 0 | 1.0 | 5.0 | 0.00 | 0.00 | 0.00 | 89 | 1012.0 |
| 20260506025930 | 78 | 0 | 1.0 | 5.0 | 0.00 | 0.00 | 0.00 | 89 | 1012.0 |
| 20260506025831 | 78 | 0 | 2.0 | 5.0 | 0.00 | 0.00 | 0.00 | 89 | 1011.9 |
| 20260506025731 | 78 | 25 | 2.0 | 5.0 | 0.00 | 0.00 | 0.00 | 89 | 1011.9 |
| 20260506025631 | 78 | 61 | 1.0 | 5.0 | 0.00 | 0.00 | 0.00 | 89 | 1011.8 |
| 20260506025531 | 78 | 66 | 1.0 | 5.0 | 0.00 | 0.00 | 0.00 | 89 | 1011.8 |
| 20260506025432 | 78 | 66 | 2.0 | 5.0 | 0.00 | 0.00 | 0.00 | 89 | 1011.8 |
| 20260506025332 | 78 | 190 | 2.0 | 6.0 | 0.00 | 0.00 | 0.00 | 89 | 1011.8 |
| 20260506025231 | 78 | 152 | 2.0 | 6.0 | 0.00 | 0.00 | 0.00 | 89 | 1011.7 |
| 20260506025132 | 78 | 142 | 3.0 | 6.0 | 0.00 | 0.00 | 0.00 | 89 | 1011.6 |
| 20260506025031 | 78 | 68 | 2.0 | 6.0 | 0.00 | 0.00 | 0.00 | 89 | 1011.6 |
| 20260506024931 | 78 | 141 | 2.0 | 6.0 | 0.00 | 0.00 | 0.00 | 89 | 1011.6 |
| 20260506024831 | 78 | 148 | 2.0 | 6.0 | 0.00 | 0.00 | 0.00 | 89 | 1011.6 |
| 20260506024732 | 78 | 75 | 2.0 | 6.0 | 0.00 | 0.00 | 0.00 | 89 | 1011.5 |
| 20260506024631 | 78 | 78 | 1.0 | 6.0 | 0.00 | 0.00 | 0.00 | 89 | 1011.6 |
| 20260506024530 | 78 | 248 | 2.0 | 6.0 | 0.00 | 0.00 | 0.00 | 89 | 1011.6 |
| 20260506024432 | 78 | 250 | 4.0 | 6.0 | 0.00 | 0.00 | 0.00 | 89 | 1011.7 |
| 20260506024333 | 78 | 162 | 2.0 | 6.0 | 0.00 | 0.00 | 0.00 | 89 | 1011.5 |
| 20260506024233 | 78 | 162 | 2.0 | 6.0 | 0.00 | 0.00 | 0.00 | 89 | 1011.6 |
| 20260506024133 | 78 | 162 | 2.0 | 6.0 | 0.00 | 0.00 | 0.00 | 89 | 1011.6 |
| 20260506024031 | 78 | 152 | 1.0 | 6.0 | 0.00 | 0.00 | 0.00 | 89 | 1011.7 |
| 20260506023933 | 78 | 147 | 1.0 | 6.0 | 0.00 | 0.00 | 0.00 | 89 | 1011.6 |
| 20260506023832 | 78 | 147 | 1.0 | 6.0 | 0.00 | 0.00 | 0.00 | 88 | 1011.6 |
| 20260506023733 | 78 | 147 | 2.0 | 6.0 | 0.00 | 0.00 | 0.00 | 88 | 1011.6 |
| 20260506023632 | 78 | 172 | 3.0 | 6.0 | 0.00 | 0.00 | 0.00 | 88 | 1011.5 |
| 20260506023531 | 78 | 123 | 2.0 | 6.0 | 0.00 | 0.00 | 0.00 | 88 | 1011.5 |
| 20260506023433 | 78 | 276 | 3.0 | 6.0 | 0.00 | 0.00 | 0.00 | 88 | 1011.5 |
| 20260506023332 | 78 | 190 | 3.0 | 6.0 | 0.00 | 0.00 | 0.00 | 88 | 1011.5 |
| 20260506023231 | 78 | 193 | 2.0 | 6.0 | 0.00 | 0.00 | 0.00 | 88 | 1011.5 |
| 20260506023133 | 78 | 137 | 2.0 | 6.0 | 0.00 | 0.00 | 0.00 | 88 | 1011.4 |
| 20260506023032 | 78 | 127 | 1.0 | 6.0 | 0.00 | 0.00 | 0.00 | 88 | 1011.5 |
| 20260506022932 | 78 | 127 | 2.0 | 6.0 | 0.00 | 0.00 | 0.00 | 88 | 1011.5 |
| 20260506022834 | 78 | 127 | 2.0 | 6.0 | 0.00 | 0.00 | 0.00 | 88 | 1011.4 |
| 20260506022731 | 78 | 145 | 2.0 | 5.0 | 0.00 | 0.00 | 0.00 | 88 | 1011.4 |
| 20260506022631 | 78 | 121 | 1.0 | 5.0 | 0.00 | 0.00 | 0.00 | 88 | 1011.4 |
| 20260506022533 | 78 | 121 | 1.0 | 5.0 | 0.00 | 0.00 | 0.00 | 88 | 1011.4 |
| 20260506022431 | 78 | 121 | 2.0 | 5.0 | 0.00 | 0.00 | 0.00 | 88 | 1011.3 |
| 20260506022332 | 78 | 114 | 2.0 | 5.0 | 0.00 | 0.00 | 0.00 | 88 | 1011.4 |
| 20260506022233 | 78 | 243 | 1.0 | 5.0 | 0.00 | 0.00 | 0.00 | 88 | 1011.3 |
| 20260506022133 | 78 | 241 | 1.0 | 5.0 | 0.00 | 0.00 | 0.00 | 88 | 1011.4 |
| 20260506022008 | 78 | 241 | 1.0 | 5.0 | 0.00 | 0.00 | 0.00 | 88 | 1011.3 |
| 20260506021906 | 78 | 175 | 1.0 | 5.0 | 0.00 | 0.00 | 0.00 | 88 | 1011.2 |
| 20260506021802 | 78 | 137 | 1.0 | 5.0 | 0.00 | 0.00 | 0.00 | 88 | 1011.2 |
| 20260506021703 | 78 | 137 | 2.0 | 5.0 | 0.00 | 0.00 | 0.00 | 88 | 1011.2 |
| 20260506021602 | 78 | 137 | 2.0 | 5.0 | 0.00 | 0.00 | 0.00 | 88 | 1011.2 |
| 20260506021503 | 78 | 183 | 2.0 | 5.0 | 0.00 | 0.00 | 0.00 | 88 | 1011.1 |
| 20260506021403 | 78 | 104 | 1.0 | 5.0 | 0.00 | 0.00 | 0.00 | 88 | 1011.1 |
| 20260506021302 | 78 | 125 | 1.0 | 5.0 | 0.00 | 0.00 | 0.00 | 88 | 1011.1 |
| 20260506021202 | 78 | 125 | 1.0 | 5.0 | 0.00 | 0.00 | 0.00 | 88 | 1011.1 |
| 20260506021104 | 78 | 125 | 1.0 | 5.0 | 0.00 | 0.00 | 0.00 | 88 | 1011.1 |
| 20260506021004 | 78 | 131 | 2.0 | 5.0 | 0.00 | 0.00 | 0.00 | 88 | 1011.2 |
| 20260506020902 | 78 | 131 | 2.0 | 5.0 | 0.00 | 0.00 | 0.00 | 88 | 1011.0 |
| 20260506020804 | 78 | 128 | 2.0 | 5.0 | 0.00 | 0.00 | 0.00 | 88 | 1011.1 |
| 20260506020704 | 78 | 220 | 2.0 | 4.0 | 0.00 | 0.00 | 0.00 | 88 | 1011.2 |
| 20260506020603 | 79 | 92 | 1.0 | 3.0 | 0.00 | 0.00 | 0.00 | 88 | 1011.2 |
| 20260506020503 | 79 | 279 | 1.0 | 3.0 | 0.00 | 0.00 | 0.00 | 88 | 1011.2 |
| 20260506020403 | 79 | 345 | 1.0 | 3.0 | 0.00 | 0.00 | 0.00 | 88 | 1011.2 |
| 20260506020302 | 79 | 344 | 2.0 | 3.0 | 0.00 | 0.00 | 0.00 | 87 | 1011.1 |
| 20260506020202 | 79 | 186 | 1.0 | 3.0 | 0.00 | 0.00 | 0.00 | 87 | 1011.1 |
| 20260506020005 | 79 | 113 | 2.0 | 3.0 | 0.00 | 0.00 | 0.00 | 87 | 1011.0 |
| 20260506015903 | 79 | 114 | 1.0 | 3.0 | 0.00 | 0.00 | 0.00 | 87 | 1011.1 |
| 20260506015803 | 79 | 135 | 1.0 | 4.0 | 0.00 | 0.00 | 0.00 | 87 | 1011.1 |
| 20260506015702 | 79 | 135 | 1.0 | 4.0 | 0.00 | 0.00 | 0.00 | 87 | 1011.1 |
| 20260506015602 | 79 | 135 | 1.0 | 4.0 | 0.00 | 0.00 | 0.00 | 87 | 1011.0 |
| 20260506015503 | 79 | 125 | 1.0 | 4.0 | 0.00 | 0.00 | 0.00 | 87 | 1011.1 |
| 20260506015403 | 79 | 120 | 1.0 | 4.0 | 0.00 | 0.00 | 0.00 | 87 | 1011.1 |
| 20260506015305 | 79 | 123 | 1.0 | 5.0 | 0.00 | 0.00 | 0.00 | 87 | 1010.9 |
| 20260506015203 | 79 | 123 | 2.0 | 5.0 | 0.00 | 0.00 | 0.00 | 87 | 1010.9 |
| 20260506015102 | 79 | 123 | 1.0 | 5.0 | 0.00 | 0.00 | 0.00 | 87 | 1010.9 |
| 20260506015004 | 79 | 123 | 1.0 | 5.0 | 0.00 | 0.00 | 0.00 | 87 | 1010.9 |
| 20260506014902 | 79 | 123 | 1.0 | 5.0 | 0.00 | 0.00 | 0.00 | 87 | 1010.8 |
| 20260506014802 | 79 | 130 | 2.0 | 5.0 | 0.00 | 0.00 | 0.00 | 87 | 1010.9 |
| 20260506014703 | 79 | 131 | 2.0 | 6.0 | 0.00 | 0.00 | 0.00 | 87 | 1010.9 |
| 20260506014603 | 79 | 130 | 1.0 | 6.0 | 0.00 | 0.00 | 0.00 | 87 | 1010.9 |
| 20260506014503 | 79 | 131 | 2.0 | 6.0 | 0.00 | 0.00 | 0.00 | 87 | 1010.9 |
| 20260506014402 | 79 | 131 | 2.0 | 7.0 | 0.00 | 0.00 | 0.00 | 87 | 1010.8 |
| 20260506014303 | 79 | 137 | 2.0 | 7.0 | 0.00 | 0.00 | 0.00 | 87 | 1010.8 |
| 20260506014203 | 79 | 99 | 2.0 | 7.0 | 0.00 | 0.00 | 0.00 | 87 | 1010.8 |
| 20260506014102 | 79 | 90 | 1.0 | 7.0 | 0.00 | 0.00 | 0.00 | 87 | 1010.8 |
| 20260506014004 | 79 | 111 | 1.0 | 7.0 | 0.00 | 0.00 | 0.00 | 87 | 1010.8 |
| 20260506013903 | 79 | 130 | 2.0 | 7.0 | 0.00 | 0.00 | 0.00 | 87 | 1010.9 |
| 20260506013804 | 79 | 130 | 2.0 | 7.0 | 0.00 | 0.00 | 0.00 | 87 | 1010.8 |
| 20260506013703 | 79 | 131 | 1.0 | 7.0 | 0.00 | 0.00 | 0.00 | 87 | 1010.8 |
| 20260506013604 | 79 | 135 | 2.0 | 7.0 | 0.00 | 0.00 | 0.00 | 87 | 1010.8 |
| 20260506013502 | 79 | 134 | 2.0 | 7.0 | 0.00 | 0.00 | 0.00 | 87 | 1010.7 |
| 20260506013403 | 79 | 106 | 1.0 | 6.0 | 0.00 | 0.00 | 0.00 | 87 | 1010.8 |
| 20260506013303 | 79 | 106 | 1.0 | 6.0 | 0.00 | 0.00 | 0.00 | 87 | 1010.8 |
| 20260506013203 | 79 | 106 | 1.0 | 6.0 | 0.00 | 0.00 | 0.00 | 87 | 1010.7 |
| 20260506013103 | 79 | 107 | 2.0 | 6.0 | 0.00 | 0.00 | 0.00 | 87 | 1010.7 |
| 20260506013004 | 79 | 71 | 2.0 | 6.0 | 0.00 | 0.00 | 0.00 | 87 | 1010.6 |
| 20260506012903 | 79 | 127 | 2.0 | 6.0 | 0.00 | 0.00 | 0.00 | 86 | 1010.6 |
| 20260506012802 | 79 | 102 | 1.0 | 4.0 | 0.00 | 0.00 | 0.00 | 87 | 1010.6 |
| 20260506012702 | 79 | 100 | 2.0 | 4.0 | 0.00 | 0.00 | 0.00 | 87 | 1010.5 |
| 20260506012603 | 79 | 100 | 1.0 | 5.0 | 0.00 | 0.00 | 0.00 | 86 | 1010.6 |
| 20260506012503 | 79 | 100 | 1.0 | 9.0 | 0.00 | 0.00 | 0.00 | 86 | 1010.6 |
| 20260506012403 | 79 | 102 | 2.0 | 9.0 | 0.00 | 0.00 | 0.00 | 86 | 1010.6 |
| 20260506012307 | 79 | 103 | 2.0 | 9.0 | 0.00 | 0.00 | 0.00 | 86 | 1010.6 |
| 20260506012202 | 79 | 97 | 2.0 | 9.0 | 0.00 | 0.00 | 0.00 | 86 | 1010.5 |
| 20260506012103 | 79 | 154 | 2.0 | 9.0 | 0.00 | 0.00 | 0.00 | 86 | 1010.6 |
| 20260506012002 | 79 | 154 | 2.0 | 9.0 | 0.00 | 0.00 | 0.00 | 86 | 1010.6 |
| 20260506011902 | 79 | 140 | 1.0 | 9.0 | 0.00 | 0.00 | 0.00 | 86 | 1010.5 |
| 20260506011803 | 79 | 142 | 2.0 | 9.0 | 0.00 | 0.00 | 0.00 | 86 | 1010.5 |
| 20260506011703 | 79 | 142 | 2.0 | 9.0 | 0.00 | 0.00 | 0.00 | 86 | 1010.5 |
| 20260506011603 | 79 | 212 | 2.0 | 9.0 | 0.00 | 0.00 | 0.00 | 86 | 1010.4 |
| 20260506011503 | 79 | 111 | 2.0 | 5.0 | 0.00 | 0.00 | 0.00 | 86 | 1010.5 |
| 20260506011401 | 79 | 24 | 2.0 | 5.0 | 0.00 | 0.00 | 0.00 | 86 | 1010.4 |
| 20260506011302 | 79 | 154 | 1.0 | 5.0 | 0.00 | 0.00 | 0.00 | 86 | 1010.4 |
| 20260506011203 | 79 | 114 | 1.0 | 5.0 | 0.00 | 0.00 | 0.00 | 86 | 1010.4 |
| 20260506011102 | 79 | 149 | 1.0 | 5.0 | 0.00 | 0.00 | 0.00 | 86 | 1010.4 |
| 20260506011002 | 79 | 149 | 2.0 | 5.0 | 0.00 | 0.00 | 0.00 | 86 | 1010.4 |
| 20260506010904 | 79 | 244 | 2.0 | 5.0 | 0.00 | 0.00 | 0.00 | 85 | 1010.3 |
| 20260506010802 | 79 | 47 | 2.0 | 5.0 | 0.00 | 0.00 | 0.00 | 85 | 1010.3 |
| 20260506010702 | 79 | 47 | 2.0 | 5.0 | 0.00 | 0.00 | 0.00 | 85 | 1010.3 |
| 20260506010604 | 79 | 34 | 2.0 | 5.0 | 0.00 | 0.00 | 0.00 | 85 | 1010.3 |
| 20260506010503 | 79 | 0 | 2.0 | 5.0 | 0.00 | 0.00 | 0.00 | 85 | 1010.3 |
| 20260506010402 | 79 | 154 | 1.0 | 5.0 | 0.00 | 0.00 | 0.00 | 85 | 1010.4 |
| 20260506010303 | 79 | 152 | 1.0 | 5.0 | 0.00 | 0.00 | 0.00 | 85 | 1010.3 |
| 20260506010203 | 79 | 148 | 2.0 | 5.0 | 0.00 | 0.00 | 0.00 | 85 | 1010.3 |
| 20260506010003 | 79 | 127 | 2.0 | 6.0 | 0.00 | 0.00 | 0.00 | 85 | 1010.2 |
| 20260506005903 | 79 | 142 | 2.0 | 6.0 | 0.00 | 0.00 | 0.00 | 85 | 1010.2 |
| 20260506005804 | 79 | 107 | 2.0 | 6.0 | 0.00 | 0.00 | 0.00 | 85 | 1010.2 |
| 20260506005704 | 79 | 41 | 2.0 | 6.0 | 0.00 | 0.00 | 0.00 | 85 | 1010.2 |
| 20260506005604 | 80 | 125 | 2.0 | 6.0 | 0.00 | 0.00 | 0.00 | 85 | 1010.3 |
| 20260506005503 | 80 | 4 | 2.0 | 6.0 | 0.00 | 0.00 | 0.00 | 85 | 1010.2 |
| 20260506005402 | 80 | 166 | 2.0 | 6.0 | 0.00 | 0.00 | 0.00 | 85 | 1010.3 |
| 20260506005305 | 80 | 76 | 1.0 | 6.0 | 0.00 | 0.00 | 0.00 | 85 | 1010.3 |
| 20260506005203 | 80 | 127 | 2.0 | 6.0 | 0.00 | 0.00 | 0.00 | 84 | 1010.3 |
| 20260506005102 | 80 | 127 | 2.0 | 6.0 | 0.00 | 0.00 | 0.00 | 84 | 1010.2 |
| 20260506005004 | 80 | 47 | 1.0 | 5.0 | 0.00 | 0.00 | 0.00 | 84 | 1010.2 |
| 20260506004903 | 80 | 47 | 2.0 | 5.0 | 0.00 | 0.00 | 0.00 | 84 | 1010.2 |
| 20260506004804 | 80 | 124 | 2.0 | 5.0 | 0.00 | 0.00 | 0.00 | 84 | 1010.3 |
| 20260506004703 | 80 | 124 | 1.0 | 5.0 | 0.00 | 0.00 | 0.00 | 84 | 1010.4 |
| 20260506004602 | 80 | 124 | 1.0 | 5.0 | 0.00 | 0.00 | 0.00 | 84 | 1010.3 |
| 20260506004503 | 80 | 124 | 2.0 | 5.0 | 0.00 | 0.00 | 0.00 | 84 | 1010.4 |
| 20260506004404 | 80 | 182 | 2.0 | 5.0 | 0.00 | 0.00 | 0.00 | 84 | 1010.4 |
| 20260506004303 | 80 | 141 | 2.0 | 7.0 | 0.00 | 0.00 | 0.00 | 84 | 1010.4 |
| 20260506004203 | 80 | 145 | 2.0 | 7.0 | 0.00 | 0.00 | 0.00 | 84 | 1010.3 |
| 20260506004104 | 80 | 137 | 1.0 | 7.0 | 0.00 | 0.00 | 0.00 | 84 | 1010.2 |
| 20260506004003 | 80 | 73 | 1.0 | 7.0 | 0.00 | 0.00 | 0.00 | 84 | 1010.3 |
| 20260506003902 | 80 | 75 | 2.0 | 7.0 | 0.00 | 0.00 | 0.00 | 84 | 1010.3 |
| 20260506003802 | 80 | 75 | 2.0 | 7.0 | 0.00 | 0.00 | 0.00 | 84 | 1010.1 |
| 20260506003704 | 80 | 138 | 2.0 | 7.0 | 0.00 | 0.00 | 0.00 | 84 | 1010.2 |
| 20260506003602 | 80 | 138 | 2.0 | 7.0 | 0.00 | 0.00 | 0.00 | 84 | 1010.2 |
| 20260506003505 | 80 | 140 | 3.0 | 7.0 | 0.00 | 0.00 | 0.00 | 84 | 1010.2 |
| 20260506003403 | 80 | 131 | 4.0 | 7.0 | 0.00 | 0.00 | 0.00 | 84 | 1010.1 |
| 20260506003302 | 80 | 135 | 2.0 | 5.0 | 0.00 | 0.00 | 0.00 | 84 | 1010.2 |
| 20260506003202 | 80 | 172 | 1.0 | 4.0 | 0.00 | 0.00 | 0.00 | 84 | 1010.2 |
| 20260506003103 | 80 | 175 | 2.0 | 4.0 | 0.00 | 0.00 | 0.00 | 84 | 1010.1 |
| 20260506003004 | 80 | 185 | 1.0 | 4.0 | 0.00 | 0.00 | 0.00 | 84 | 1010.1 |
| 20260506002903 | 80 | 185 | 1.0 | 4.0 | 0.00 | 0.00 | 0.00 | 84 | 1010.1 |
| 20260506002804 | 80 | 185 | 1.0 | 4.0 | 0.00 | 0.00 | 0.00 | 84 | 1010.1 |
| 20260506002703 | 80 | 185 | 1.0 | 6.0 | 0.00 | 0.00 | 0.00 | 84 | 1010.0 |
| 20260506002602 | 80 | 185 | 2.0 | 6.0 | 0.00 | 0.00 | 0.00 | 84 | 1010.0 |
| 20260506002504 | 80 | 189 | 2.0 | 6.0 | 0.00 | 0.00 | 0.00 | 84 | 1010.1 |
| 20260506002402 | 80 | 213 | 2.0 | 6.0 | 0.00 | 0.00 | 0.00 | 84 | 1010.1 |
| 20260506002301 | 80 | 214 | 2.0 | 6.0 | 0.00 | 0.00 | 0.00 | 84 | 1010.0 |
| 20260506002204 | 80 | 227 | 2.0 | 6.0 | 0.00 | 0.00 | 0.00 | 83 | 1010.0 |
| 20260506002103 | 80 | 227 | 2.0 | 10.0 | 0.00 | 0.00 | 0.00 | 83 | 1010.0 |
| 20260506002003 | 80 | 13 | 2.0 | 10.0 | 0.00 | 0.00 | 0.00 | 83 | 1010.0 |
| 20260506001902 | 80 | 162 | 2.0 | 10.0 | 0.00 | 0.00 | 0.00 | 83 | 1009.9 |
| 20260506001803 | 80 | 117 | 3.0 | 10.0 | 0.00 | 0.00 | 0.00 | 83 | 1009.9 |
| 20260506001702 | 80 | 137 | 2.0 | 10.0 | 0.00 | 0.00 | 0.00 | 83 | 1010.0 |
| 20260506001602 | 80 | 310 | 2.0 | 10.0 | 0.00 | 0.00 | 0.00 | 83 | 1009.9 |
| 20260506001503 | 80 | 121 | 1.0 | 10.0 | 0.00 | 0.00 | 0.00 | 83 | 1010.0 |
| 20260506001402 | 80 | 123 | 1.0 | 10.0 | 0.00 | 0.00 | 0.00 | 83 | 1010.0 |
| 20260506001303 | 80 | 123 | 2.0 | 10.0 | 0.00 | 0.00 | 0.00 | 83 | 1010.0 |
| 20260506001202 | 80 | 125 | 3.0 | 10.0 | 0.00 | 0.00 | 0.00 | 83 | 1010.0 |
| 20260506001104 | 80 | 148 | 2.0 | 5.0 | 0.00 | 0.00 | 0.00 | 83 | 1010.0 |
| 20260506001003 | 80 | 165 | 3.0 | 5.0 | 0.00 | 0.00 | 0.00 | 83 | 1010.0 |
| 20260506000904 | 80 | 79 | 2.0 | 5.0 | 0.00 | 0.00 | 0.00 | 83 | 1010.1 |
| 20260506000803 | 80 | 199 | 1.0 | 4.0 | 0.00 | 0.00 | 0.00 | 83 | 1010.1 |
| 20260506000702 | 80 | 206 | 2.0 | 4.0 | 0.00 | 0.00 | 0.00 | 83 | 1010.1 |
| 20260506000602 | 80 | 56 | 2.0 | 4.0 | 0.00 | 0.00 | 0.00 | 83 | 1010.1 |
| 20260506000502 | 80 | 20 | 2.0 | 4.0 | 0.00 | 0.00 | 0.00 | 83 | 1010.1 |
| 20260506000404 | 80 | 138 | 1.0 | 4.0 | 0.00 | 0.00 | 0.00 | 83 | 1010.1 |
| 20260506000304 | 80 | 176 | 2.0 | 4.0 | 0.00 | 0.00 | 0.00 | 83 | 1010.1 |
| 20260506000204 | 80 | 188 | 2.0 | 4.0 | 0.00 | 0.00 | 0.00 | 83 | 1010.0 |
| 20260506000003 | 80 | 124 | 1.0 | 5.0 | 0.00 | 0.00 | 0.00 | 83 | 1010.0 |
| 20260505235903 | 80 | 124 | 1.0 | 5.0 | 0.00 | 0.00 | 0.00 | 83 | 1010.0 |
| 20260505235802 | 80 | 127 | 1.0 | 5.0 | 0.00 | 0.00 | 0.00 | 83 | 1010.0 |
| 20260505235703 | 80 | 127 | 2.0 | 5.0 | 0.00 | 0.00 | 0.00 | 83 | 1009.9 |
| 20260505235602 | 81 | 127 | 2.0 | 5.0 | 0.00 | 0.00 | 0.00 | 83 | 1009.9 |
| 20260505235503 | 81 | 189 | 2.0 | 5.0 | 0.00 | 0.00 | 0.00 | 83 | 1010.0 |
| 20260505235403 | 81 | 94 | 2.0 | 5.0 | 0.00 | 0.00 | 0.00 | 83 | 1009.9 |
| 20260505235305 | 81 | 4 | 1.0 | 7.0 | 0.00 | 0.00 | 0.00 | 83 | 1009.9 |
| 20260505235202 | 81 | 90 | 2.0 | 7.0 | 0.00 | 0.00 | 0.00 | 83 | 1009.9 |
| 20260505235104 | 81 | 100 | 2.0 | 7.0 | 0.00 | 0.00 | 0.00 | 82 | 1009.8 |
| 20260505235005 | 81 | 99 | 1.0 | 7.0 | 0.00 | 0.00 | 0.00 | 82 | 1009.8 |
| 20260505234903 | 81 | 118 | 2.0 | 7.0 | 0.00 | 0.00 | 0.00 | 82 | 1009.8 |
| 20260505234802 | 81 | 120 | 2.0 | 7.0 | 0.00 | 0.00 | 0.00 | 82 | 1009.8 |
| 20260505234703 | 81 | 111 | 1.0 | 7.0 | 0.00 | 0.00 | 0.00 | 82 | 1009.9 |
| 20260505234602 | 81 | 113 | 1.0 | 7.0 | 0.00 | 0.00 | 0.00 | 82 | 1009.9 |
| 20260505234505 | 81 | 117 | 2.0 | 7.0 | 0.00 | 0.00 | 0.00 | 82 | 1010.0 |
| 20260505234405 | 81 | 117 | 3.0 | 7.0 | 0.00 | 0.00 | 0.00 | 82 | 1010.0 |
| 20260505234302 | 81 | 82 | 2.0 | 6.0 | 0.00 | 0.00 | 0.00 | 82 | 1010.0 |
| 20260505234200 | 81 | 7 | 1.0 | 6.0 | 0.00 | 0.00 | 0.00 | 82 | 1010.0 |
| 20260505234055 | 81 | 331 | 1.0 | 6.0 | 0.00 | 0.00 | 0.00 | 82 | 1010.0 |
| 20260505233955 | 81 | 330 | 2.0 | 12.0 | 0.00 | 0.00 | 0.00 | 82 | 1010.1 |
| 20260505233855 | 81 | 110 | 2.0 | 12.0 | 0.00 | 0.00 | 0.00 | 82 | 1010.1 |
| 20260505233751 | 81 | 110 | 2.0 | 12.0 | 0.00 | 0.00 | 0.00 | 82 | 1010.1 |
| 20260505233651 | 81 | 340 | 3.0 | 12.0 | 0.00 | 0.00 | 0.00 | 82 | 1010.1 |
| 20260505233552 | 81 | 123 | 3.0 | 12.0 | 0.00 | 0.00 | 0.00 | 82 | 1010.0 |
| 20260505233450 | 81 | 169 | 2.0 | 12.0 | 0.00 | 0.00 | 0.00 | 82 | 1010.0 |
| 20260505233352 | 81 | 0 | 2.0 | 12.0 | 0.00 | 0.00 | 0.00 | 82 | 1010.1 |
| 20260505233232 | 81 | 48 | 2.0 | 12.0 | 0.00 | 0.00 | 0.00 | 82 | 1010.1 |
| 20260505233131 | 81 | 82 | 3.0 | 12.0 | 0.00 | 0.00 | 0.00 | 82 | 1010.1 |
| 20260505233032 | 81 | 142 | 3.0 | 12.0 | 0.00 | 0.00 | 0.00 | 82 | 1010.2 |
| 20260505232933 | 81 | 309 | 2.0 | 6.0 | 0.00 | 0.00 | 0.00 | 82 | 1010.1 |
| 20260505232831 | 81 | 233 | 2.0 | 6.0 | 0.00 | 0.00 | 0.00 | 82 | 1010.1 |
| 20260505232731 | 81 | 158 | 2.0 | 6.0 | 0.00 | 0.00 | 0.00 | 82 | 1010.1 |
| 20260505232631 | 81 | 121 | 2.0 | 6.0 | 0.00 | 0.00 | 0.00 | 82 | 1010.1 |
| 20260505232531 | 81 | 34 | 2.0 | 5.0 | 0.00 | 0.00 | 0.00 | 82 | 1010.1 |
| 20260505232432 | 81 | 35 | 2.0 | 4.0 | 0.00 | 0.00 | 0.00 | 82 | 1010.1 |
| 20260505232332 | 81 | 121 | 2.0 | 4.0 | 0.00 | 0.00 | 0.00 | 82 | 1010.1 |
| 20260505232232 | 81 | 141 | 2.0 | 4.0 | 0.00 | 0.00 | 0.00 | 82 | 1010.1 |
| 20260505232133 | 81 | 121 | 3.0 | 4.0 | 0.00 | 0.00 | 0.00 | 82 | 1010.1 |
| 20260505232031 | 81 | 180 | 2.0 | 3.0 | 0.00 | 0.00 | 0.00 | 82 | 1010.1 |
| 20260505231932 | 81 | 121 | 1.0 | 3.0 | 0.00 | 0.00 | 0.00 | 82 | 1010.1 |
| 20260505231831 | 81 | 124 | 2.0 | 3.0 | 0.00 | 0.00 | 0.00 | 82 | 1010.1 |
| 20260505231732 | 81 | 130 | 2.0 | 3.0 | 0.00 | 0.00 | 0.00 | 82 | 1010.0 |
| 20260505231632 | 0 | 0.0 | 0.0 | 0.00 | 0.00 | 0.00 | 1010.1 | ||
| 20260505231533 | 0 | 0.0 | 4.0 | 0.00 | 0.00 | 0.00 | 1010.2 | ||
| 20260505231432 | 0 | 0.0 | 4.0 | 0.00 | 0.00 | 0.00 | 1010.2 | ||
| 20260505231332 | 0 | 0.0 | 4.0 | 0.00 | 0.00 | 0.00 | 1010.2 | ||
| 20260505231233 | 0 | 0.0 | 5.0 | 0.00 | 0.00 | 0.00 | 1010.2 | ||
| 20260505231132 | 0 | 0.0 | 5.0 | 0.00 | 0.00 | 0.00 | 1010.1 | ||
| 20260505231032 | 81 | 336 | 2.0 | 5.0 | 0.00 | 0.00 | 0.00 | 83 | 1010.1 |
| 20260505230933 | 81 | 336 | 2.0 | 5.0 | 0.00 | 0.00 | 0.00 | 83 | 1010.0 |
| 20260505230832 | 81 | 336 | 2.0 | 5.0 | 0.00 | 0.00 | 0.00 | 83 | 1010.0 |
| 20260505230733 | 81 | 336 | 2.0 | 6.0 | 0.00 | 0.00 | 0.00 | 83 | 1010.0 |
| 20260505230632 | 81 | 336 | 2.0 | 6.0 | 0.00 | 0.00 | 0.00 | 83 | 1010.1 |
| 20260505230509 | 81 | 118 | 2.0 | 6.0 | 0.00 | 0.00 | 0.00 | 83 | 1010.0 |
| 20260505230407 | 81 | 118 | 2.0 | 6.0 | 0.00 | 0.00 | 0.00 | 83 | 1010.1 |
| 20260505230305 | 81 | 0 | 2.0 | 7.0 | 0.00 | 0.00 | 0.00 | 83 | 1010.1 |
| 20260505230204 | 81 | 148 | 2.0 | 7.0 | 0.00 | 0.00 | 0.00 | 83 | 1010.1 |
| 20260505230001 | 81 | 159 | 2.0 | 7.0 | 0.00 | 0.00 | 0.00 | 83 | 1010.1 |
| 20260505225903 | 81 | 233 | 3.0 | 7.0 | 0.00 | 0.00 | 0.00 | 83 | 1010.1 |
| 20260505225802 | 81 | 303 | 2.0 | 7.0 | 0.00 | 0.00 | 0.00 | 83 | 1010.1 |
| 20260505225702 | 81 | 137 | 2.0 | 7.0 | 0.00 | 0.00 | 0.00 | 83 | 1010.1 |
| 20260505225604 | 81 | 135 | 3.0 | 7.0 | 0.00 | 0.00 | 0.00 | 83 | 1010.1 |
| 20260505225504 | 81 | 140 | 4.0 | 7.0 | 0.00 | 0.00 | 0.00 | 83 | 1010.0 |
| 20260505225403 | 81 | 173 | 3.0 | 7.0 | 0.00 | 0.00 | 0.00 | 83 | 1010.0 |
| 20260505225305 | 81 | 148 | 2.0 | 4.0 | 0.00 | 0.00 | 0.00 | 83 | 1010.0 |
| 20260505225202 | 81 | 154 | 1.0 | 4.0 | 0.00 | 0.00 | 0.00 | 83 | 1009.9 |
| 20260505225102 | 81 | 110 | 1.0 | 4.0 | 0.00 | 0.00 | 0.00 | 83 | 1009.9 |
| 20260505225002 | 81 | 110 | 1.0 | 4.0 | 0.00 | 0.00 | 0.00 | 83 | 1010.0 |
| 20260505224903 | 81 | 110 | 2.0 | 4.0 | 0.00 | 0.00 | 0.00 | 82 | 1009.9 |
| 20260505224805 | 0 | 0.0 | 0.0 | 0.00 | 0.00 | 0.00 | 1009.9 | ||
| 20260505224703 | 0 | 0.0 | 0.0 | 0.00 | 0.00 | 0.00 | 1009.9 | ||
| 20260505224603 | 0 | 0.0 | 0.0 | 0.00 | 0.00 | 0.00 | 1009.9 | ||
| 20260505224504 | 0 | 0.0 | 0.0 | 0.00 | 0.00 | 0.00 | 1009.9 | ||
| 20260505224404 | 0 | 0.0 | 2.0 | 0.00 | 0.00 | 0.00 | 1009.9 | ||
| 20260505224303 | 0 | 0.0 | 7.0 | 0.00 | 0.00 | 0.00 | 1010.0 | ||
| 20260505224203 | 0 | 0.0 | 7.0 | 0.00 | 0.00 | 0.00 | 1010.0 | ||
| 20260505224104 | 0 | 0.0 | 7.0 | 0.00 | 0.00 | 0.00 | 1009.9 | ||
| 20260505224003 | 0 | 0.0 | 7.0 | 0.00 | 0.00 | 0.00 | 1009.9 | ||
| 20260505223905 | 0 | 355 | 3.0 | 7.0 | 0.00 | 0.00 | 0.00 | 1010.0 | |
| 20260505223804 | 82 | 355 | 3.0 | 7.0 | 0.00 | 0.00 | 0.00 | 82 | 1010.1 |
| 20260505223704 | 82 | 355 | 3.0 | 7.0 | 0.00 | 0.00 | 0.00 | 82 | 1009.9 |
| 20260505223604 | 82 | 355 | 3.0 | 7.0 | 0.00 | 0.00 | 0.00 | 82 | 1010.0 |
| 20260505223505 | 82 | 355 | 3.0 | 7.0 | 0.00 | 0.00 | 0.00 | 82 | 1009.9 |
| 20260505223403 | 82 | 158 | 3.0 | 7.0 | 0.00 | 0.00 | 0.00 | 82 | 1010.0 |
| 20260505223302 | 82 | 130 | 2.0 | 7.0 | 0.00 | 0.00 | 0.00 | 82 | 1010.1 |
| 20260505223203 | 82 | 137 | 1.0 | 4.0 | 0.00 | 0.00 | 0.00 | 82 | 1010.1 |
| 20260505223103 | 82 | 138 | 1.0 | 4.0 | 0.00 | 0.00 | 0.00 | 81 | 1010.0 |
| 20260505223005 | 0 | 0.0 | 4.0 | 0.00 | 0.00 | 0.00 | 1010.1 | ||
| 20260505222904 | 0 | 0.0 | 6.0 | 0.00 | 0.00 | 0.00 | 1010.0 | ||
| 20260505222803 | 0 | 0.0 | 6.0 | 0.00 | 0.00 | 0.00 | 1010.0 | ||
| 20260505222703 | 82 | 195 | 2.0 | 6.0 | 0.00 | 0.00 | 0.00 | 81 | 1010.0 |
| 20260505222604 | 82 | 195 | 2.0 | 6.0 | 0.00 | 0.00 | 0.00 | 81 | 1010.0 |
| 20260505222504 | 82 | 195 | 2.0 | 6.0 | 0.00 | 0.00 | 0.00 | 81 | 1010.1 |
| 20260505222403 | 82 | 195 | 2.0 | 6.0 | 0.00 | 0.00 | 0.00 | 81 | 1010.1 |
| 20260505222305 | 82 | 195 | 2.0 | 6.0 | 0.00 | 0.00 | 0.00 | 81 | 1010.1 |
| 20260505222203 | 82 | 244 | 2.0 | 6.0 | 0.00 | 0.00 | 0.00 | 81 | 1010.2 |
| 20260505222103 | 82 | 244 | 2.0 | 6.0 | 0.00 | 0.00 | 0.00 | 81 | 1010.1 |
| 20260505222002 | 82 | 244 | 2.0 | 6.0 | 0.00 | 0.00 | 0.00 | 81 | 1010.2 |
| 20260505221903 | 82 | 288 | 2.0 | 6.0 | 0.00 | 0.00 | 0.00 | 81 | 1010.1 |
| 20260505221803 | 82 | 286 | 2.0 | 6.0 | 0.00 | 0.00 | 0.00 | 81 | 1010.1 |
| 20260505221702 | 82 | 243 | 3.0 | 6.0 | 0.00 | 0.00 | 0.00 | 81 | 1010.1 |
| 20260505221602 | 82 | 169 | 3.0 | 6.0 | 0.00 | 0.00 | 0.00 | 81 | 1010.1 |
| 20260505221504 | 82 | 329 | 3.0 | 6.0 | 0.00 | 0.00 | 0.00 | 81 | 1010.2 |
| 20260505221403 | 82 | 272 | 3.0 | 5.0 | 0.00 | 0.00 | 0.00 | 81 | 1010.2 |
| 20260505221303 | 82 | 178 | 2.0 | 5.0 | 0.00 | 0.00 | 0.00 | 81 | 1010.2 |
| 20260505221202 | 82 | 125 | 2.0 | 5.0 | 0.00 | 0.00 | 0.00 | 81 | 1010.3 |
| 20260505221104 | 82 | 164 | 2.0 | 5.0 | 0.00 | 0.00 | 0.00 | 81 | 1010.2 |
| 20260505221002 | 82 | 149 | 3.0 | 5.0 | 0.00 | 0.00 | 0.00 | 81 | 1010.2 |
| 20260505220902 | 82 | 323 | 2.0 | 5.0 | 0.00 | 0.00 | 0.00 | 81 | 1010.2 |
| 20260505220803 | 82 | 145 | 2.0 | 5.0 | 0.00 | 0.00 | 0.00 | 81 | 1010.3 |
| 20260505220702 | 83 | 0 | 2.0 | 5.0 | 0.00 | 0.00 | 0.00 | 81 | 1010.2 |
| 20260505220604 | 83 | 0 | 2.0 | 5.0 | 0.00 | 0.00 | 0.00 | 81 | 1010.2 |
| 20260505220454 | 83 | 0 | 3.0 | 5.0 | 0.00 | 0.00 | 0.00 | 81 | 1010.2 |
| 20260505220352 | 83 | 264 | 3.0 | 5.0 | 0.00 | 0.00 | 0.00 | 81 | 1010.3 |
| 20260505220245 | 83 | 233 | 2.0 | 5.0 | 0.00 | 0.00 | 0.00 | 81 | 1010.2 |
| 20260505220142 | 83 | 144 | 2.0 | 5.0 | 0.00 | 0.00 | 0.00 | 81 | 1010.1 |
| 20260505220043 | 83 | 127 | 2.0 | 5.0 | 0.00 | 0.00 | 0.00 | 80 | 1010.1 |
| 20260505215941 | 83 | 130 | 2.0 | 5.0 | 0.00 | 0.00 | 0.00 | 80 | 1010.1 |
| 20260505215841 | 83 | 118 | 2.0 | 5.0 | 0.00 | 0.00 | 0.00 | 80 | 1010.2 |
| 20260505215742 | 83 | 10 | 2.0 | 5.0 | 0.00 | 0.00 | 0.00 | 81 | 1010.1 |
| 20260505215643 | 83 | 103 | 3.0 | 5.0 | 0.00 | 0.00 | 0.00 | 80 | 1010.2 |
| 20260505215541 | 83 | 307 | 3.0 | 5.0 | 0.00 | 0.00 | 0.00 | 81 | 1010.2 |
| 20260505215442 | 83 | 47 | 2.0 | 5.0 | 0.00 | 0.00 | 0.00 | 81 | 1010.1 |
| 20260505215342 | 83 | 1 | 2.0 | 5.0 | 0.00 | 0.00 | 0.00 | 80 | 1010.2 |
| 20260505215242 | 83 | 0 | 2.0 | 9.0 | 0.00 | 0.00 | 0.00 | 80 | 1010.3 |
| 20260505215142 | 83 | 109 | 2.0 | 9.0 | 0.00 | 0.00 | 0.00 | 80 | 1010.3 |
| 20260505215042 | 83 | 209 | 2.0 | 9.0 | 0.00 | 0.00 | 0.00 | 80 | 1010.3 |
| 20260505214942 | 83 | 169 | 2.0 | 9.0 | 0.00 | 0.00 | 0.00 | 81 | 1010.3 |
| 20260505214841 | 83 | 169 | 2.0 | 9.0 | 0.00 | 0.00 | 0.00 | 80 | 1010.3 |
| 20260505214742 | 83 | 148 | 2.0 | 9.0 | 0.00 | 0.00 | 0.00 | 80 | 1010.4 |
| 20260505214642 | 83 | 62 | 2.0 | 9.0 | 0.00 | 0.00 | 0.00 | 80 | 1010.4 |
| 20260505214542 | 83 | 14 | 4.0 | 9.0 | 0.00 | 0.00 | 0.00 | 80 | 1010.4 |
| 20260505214441 | 83 | 137 | 4.0 | 9.0 | 0.00 | 0.00 | 0.00 | 81 | 1010.4 |
| 20260505214342 | 83 | 265 | 3.0 | 9.0 | 0.00 | 0.00 | 0.00 | 81 | 1010.3 |
| 20260505214242 | 83 | 334 | 2.0 | 6.0 | 0.00 | 0.00 | 0.00 | 81 | 1010.3 |
| 20260505214142 | 82 | 20 | 2.0 | 5.0 | 0.00 | 0.00 | 0.00 | 82 | 1010.4 |
| 20260505214042 | 82 | 30 | 2.0 | 5.0 | 0.00 | 0.00 | 0.00 | 82 | 1010.4 |
| 20260505213941 | 82 | 336 | 1.0 | 6.0 | 0.00 | 0.00 | 0.00 | 82 | 1010.4 |
| 20260505213844 | 82 | 307 | 1.0 | 6.0 | 0.00 | 0.00 | 0.00 | 81 | 1010.4 |
| 20260505213742 | 82 | 306 | 3.0 | 6.0 | 0.00 | 0.00 | 0.00 | 81 | 1010.4 |
| 20260505213642 | 82 | 306 | 3.0 | 7.0 | 0.00 | 0.00 | 0.00 | 81 | 1010.5 |
| 20260505213542 | 82 | 121 | 2.0 | 7.0 | 0.00 | 0.00 | 0.00 | 82 | 1010.5 |
| 20260505213441 | 82 | 312 | 1.0 | 7.0 | 0.00 | 0.00 | 0.00 | 81 | 1010.4 |
| 20260505213341 | 82 | 39 | 1.0 | 7.0 | 0.00 | 0.00 | 0.00 | 82 | 1010.4 |
| 20260505213242 | 82 | 102 | 2.0 | 7.0 | 0.00 | 0.00 | 0.00 | 82 | 1010.5 |
| 20260505213141 | 82 | 102 | 3.0 | 7.0 | 0.00 | 0.00 | 0.00 | 81 | 1010.6 |
| 20260505213041 | 82 | 255 | 4.0 | 7.0 | 0.00 | 0.00 | 0.00 | 81 | 1010.5 |
| 20260505212942 | 82 | 54 | 3.0 | 7.0 | 0.00 | 0.00 | 0.00 | 82 | 1010.4 |
| 20260505212842 | 82 | 173 | 3.0 | 7.0 | 0.00 | 0.00 | 0.00 | 81 | 1010.5 |
| 20260505212742 | 82 | 134 | 3.0 | 7.0 | 0.00 | 0.00 | 0.00 | 81 | 1010.5 |
| 20260505212642 | 82 | 190 | 1.0 | 4.0 | 0.00 | 0.00 | 0.00 | 81 | 1010.5 |
| 20260505212542 | 82 | 157 | 1.0 | 4.0 | 0.00 | 0.00 | 0.00 | 82 | 1010.5 |
| 20260505212440 | 82 | 157 | 1.0 | 4.0 | 0.00 | 0.00 | 0.00 | 82 | 1010.6 |
| 20260505212341 | 82 | 96 | 1.0 | 7.0 | 0.00 | 0.00 | 0.00 | 81 | 1010.5 |
| 20260505212243 | 82 | 96 | 2.0 | 7.0 | 0.00 | 0.00 | 0.00 | 81 | 1010.6 |
| 20260505212141 | 83 | 147 | 2.0 | 7.0 | 0.00 | 0.00 | 0.00 | 81 | 1010.7 |
| 20260505212042 | 83 | 306 | 2.0 | 7.0 | 0.00 | 0.00 | 0.00 | 81 | 1010.7 |
| 20260505211942 | 83 | 306 | 2.0 | 7.0 | 0.00 | 0.00 | 0.00 | 81 | 1010.6 |
| 20260505211842 | 83 | 306 | 2.0 | 7.0 | 0.00 | 0.00 | 0.00 | 81 | 1010.6 |
| 20260505211743 | 83 | 306 | 2.0 | 7.0 | 0.00 | 0.00 | 0.00 | 81 | 1010.6 |
| 20260505211642 | 83 | 306 | 2.0 | 7.0 | 0.00 | 0.00 | 0.00 | 81 | 1010.6 |
| 20260505211540 | 83 | 306 | 2.0 | 7.0 | 0.00 | 0.00 | 0.00 | 81 | 1010.6 |
| 20260505211440 | 83 | 289 | 3.0 | 7.0 | 0.00 | 0.00 | 0.00 | 80 | 1010.6 |
| 20260505211342 | 83 | 138 | 3.0 | 6.0 | 0.00 | 0.00 | 0.00 | 80 | 1010.6 |
| 20260505211242 | 82 | 193 | 3.0 | 7.0 | 0.00 | 0.00 | 0.00 | 80 | 1010.6 |
| 20260505211141 | 82 | 272 | 2.0 | 10.0 | 0.00 | 0.00 | 0.00 | 80 | 1010.7 |
| 20260505211042 | 82 | 320 | 4.0 | 10.0 | 0.00 | 0.00 | 0.00 | 80 | 1010.7 |
| 20260505210940 | 83 | 99 | 4.0 | 10.0 | 0.00 | 0.00 | 0.00 | 80 | 1010.8 |
| 20260505210842 | 83 | 0 | 3.0 | 10.0 | 0.00 | 0.00 | 0.00 | 80 | 1010.8 |
| 20260505210740 | 83 | 130 | 3.0 | 10.0 | 0.00 | 0.00 | 0.00 | 80 | 1010.8 |
| 20260505210641 | 83 | 292 | 2.0 | 10.0 | 0.00 | 0.00 | 0.00 | 80 | 1010.7 |
| 20260505210540 | 83 | 266 | 2.0 | 10.0 | 0.00 | 0.00 | 0.00 | 80 | 1010.8 |
| 20260505210440 | 83 | 168 | 3.0 | 10.0 | 0.00 | 0.00 | 0.00 | 80 | 1010.7 |
| 20260505210340 | 83 | 109 | 4.0 | 10.0 | 0.00 | 0.00 | 0.00 | 80 | 1010.8 |
| 20260505210240 | 83 | 104 | 4.0 | 10.0 | 0.00 | 0.00 | 0.00 | 80 | 1010.7 |
| 20260505210140 | 83 | 266 | 4.0 | 10.0 | 0.00 | 0.00 | 0.00 | 81 | 1010.8 |
| 20260505210041 | 83 | 155 | 4.0 | 10.0 | 0.00 | 0.00 | 0.00 | 80 | 1010.8 |
| 20260505205940 | 83 | 316 | 4.0 | 10.0 | 0.00 | 0.00 | 0.00 | 81 | 1010.8 |
| 20260505205841 | 83 | 145 | 3.0 | 10.0 | 0.00 | 0.00 | 0.00 | 81 | 1010.8 |
| 20260505205740 | 83 | 286 | 4.0 | 10.0 | 0.00 | 0.00 | 0.00 | 81 | 1010.8 |
| 20260505205640 | 83 | 168 | 3.0 | 10.0 | 0.00 | 0.00 | 0.00 | 81 | 1010.9 |
| 20260505205540 | 83 | 159 | 2.0 | 6.0 | 0.00 | 0.00 | 0.00 | 81 | 1010.9 |
| 20260505205441 | 83 | 183 | 3.0 | 6.0 | 0.00 | 0.00 | 0.00 | 80 | 1010.9 |
| 20260505205341 | 83 | 125 | 3.0 | 6.0 | 0.00 | 0.00 | 0.00 | 81 | 1010.9 |
| 20260505205240 | 83 | 271 | 3.0 | 6.0 | 0.00 | 0.00 | 0.00 | 81 | 1011.0 |
| 20260505205143 | 83 | 233 | 1.0 | 6.0 | 0.00 | 0.00 | 0.00 | 81 | 1010.9 |
| 20260505205041 | 83 | 85 | 2.0 | 6.0 | 0.00 | 0.00 | 0.00 | 81 | 1010.9 |
| 20260505204940 | 83 | 86 | 2.0 | 6.0 | 0.00 | 0.00 | 0.00 | 81 | 1011.0 |
| 20260505204841 | 83 | 0 | 2.0 | 6.0 | 0.00 | 0.00 | 0.00 | 81 | 1011.0 |
| 20260505204735 | 83 | 245 | 2.0 | 6.0 | 0.00 | 0.00 | 0.00 | 81 | 1011.0 |
| 20260505204630 | 83 | 343 | 2.0 | 6.0 | 0.00 | 0.00 | 0.00 | 80 | 1011.0 |
| 20260505204532 | 83 | 72 | 2.0 | 6.0 | 0.00 | 0.00 | 0.00 | 80 | 1011.0 |
| 20260505204432 | 83 | 289 | 2.0 | 6.0 | 0.00 | 0.00 | 0.00 | 80 | 1011.0 |
| 20260505204333 | 83 | 155 | 2.0 | 6.0 | 0.00 | 0.00 | 0.00 | 81 | 1011.0 |
| 20260505204232 | 83 | 164 | 2.0 | 6.0 | 0.00 | 0.00 | 0.00 | 81 | 1011.0 |
| 20260505204133 | 83 | 134 | 2.0 | 6.0 | 0.00 | 0.00 | 0.00 | 81 | 1010.9 |
| 20260505204031 | 83 | 118 | 1.0 | 6.0 | 0.00 | 0.00 | 0.00 | 81 | 1010.8 |
| 20260505203931 | 83 | 125 | 1.0 | 6.0 | 0.00 | 0.00 | 0.00 | 81 | 1010.9 |
| 20260505203832 | 83 | 125 | 1.0 | 6.0 | 0.00 | 0.00 | 0.00 | 81 | 1010.9 |
| 20260505203731 | 83 | 125 | 2.0 | 6.0 | 0.00 | 0.00 | 0.00 | 81 | 1011.0 |
| 20260505203631 | 83 | 92 | 2.0 | 6.0 | 0.00 | 0.00 | 0.00 | 80 | 1010.8 |
| 20260505203533 | 83 | 206 | 3.0 | 6.0 | 0.00 | 0.00 | 0.00 | 80 | 1010.9 |
| 20260505203431 | 83 | 121 | 2.0 | 6.0 | 0.00 | 0.00 | 0.00 | 80 | 1011.0 |
| 20260505203332 | 83 | 131 | 2.0 | 6.0 | 0.00 | 0.00 | 0.00 | 80 | 1011.0 |
| 20260505203231 | 83 | 145 | 2.0 | 6.0 | 0.00 | 0.00 | 0.00 | 80 | 1011.0 |
| 20260505203132 | 83 | 155 | 2.0 | 6.0 | 0.00 | 0.00 | 0.00 | 80 | 1011.1 |
| 20260505203032 | 83 | 144 | 2.0 | 6.0 | 0.00 | 0.00 | 0.00 | 80 | 1011.1 |
| 20260505202932 | 83 | 144 | 2.0 | 6.0 | 0.00 | 0.00 | 0.00 | 80 | 1011.1 |
| 20260505202832 | 83 | 13 | 2.0 | 7.0 | 0.00 | 0.00 | 0.00 | 80 | 1011.1 |
| 20260505202716 | 83 | 173 | 2.0 | 7.0 | 0.00 | 0.00 | 0.00 | 80 | 1011.0 |
| 20260505202615 | 83 | 175 | 2.0 | 7.0 | 0.00 | 0.00 | 0.00 | 79 | 1011.1 |
| 20260505202512 | 83 | 252 | 2.0 | 7.0 | 0.00 | 0.00 | 0.00 | 79 | 1011.2 |
| 20260505202411 | 83 | 135 | 2.0 | 7.0 | 0.00 | 0.00 | 0.00 | 79 | 1011.3 |
| 20260505202310 | 83 | 168 | 3.0 | 7.0 | 0.00 | 0.00 | 0.00 | 78 | 1011.2 |
| 20260505202209 | 83 | 195 | 3.0 | 9.0 | 0.00 | 0.00 | 0.00 | 78 | 1011.2 |
| 20260505202107 | 83 | 92 | 3.0 | 9.0 | 0.00 | 0.00 | 0.00 | 79 | 1011.2 |
| 20260505202006 | 83 | 176 | 3.0 | 9.0 | 0.00 | 0.00 | 0.00 | 78 | 1011.2 |
| 20260505201904 | 83 | 82 | 4.0 | 9.0 | 0.00 | 0.00 | 0.00 | 78 | 1011.3 |
| 20260505201803 | 83 | 344 | 3.0 | 10.0 | 0.00 | 0.00 | 0.00 | 79 | 1011.5 |
| 20260505201703 | 83 | 138 | 3.0 | 10.0 | 0.00 | 0.00 | 0.00 | 78 | 1011.3 |
| 20260505201603 | 83 | 274 | 3.0 | 10.0 | 0.00 | 0.00 | 0.00 | 78 | 1011.3 |
| 20260505201504 | 84 | 189 | 2.0 | 10.0 | 0.00 | 0.00 | 0.00 | 78 | 1011.4 |
| 20260505201402 | 84 | 117 | 4.0 | 10.0 | 0.00 | 0.00 | 0.00 | 78 | 1011.4 |
| 20260505201303 | 84 | 266 | 3.0 | 10.0 | 0.00 | 0.00 | 0.00 | 78 | 1011.3 |
| 20260505201204 | 84 | 21 | 2.0 | 10.0 | 0.00 | 0.00 | 0.00 | 79 | 1011.3 |
| 20260505201103 | 83 | 293 | 2.0 | 10.0 | 0.00 | 0.00 | 0.00 | 79 | 1011.3 |
| 20260505201003 | 83 | 223 | 3.0 | 10.0 | 0.00 | 0.00 | 0.00 | 78 | 1011.4 |
| 20260505200902 | 83 | 145 | 4.0 | 10.0 | 0.00 | 0.00 | 0.00 | 79 | 1011.3 |
| 20260505200803 | 83 | 259 | 2.0 | 7.0 | 0.00 | 0.00 | 0.00 | 79 | 1011.4 |
| 20260505200703 | 83 | 120 | 2.0 | 7.0 | 0.00 | 0.00 | 0.00 | 79 | 1011.3 |
| 20260505200602 | 83 | 120 | 2.0 | 7.0 | 0.00 | 0.00 | 0.00 | 79 | 1011.4 |
| 20260505200503 | 83 | 145 | 3.0 | 7.0 | 0.00 | 0.00 | 0.00 | 79 | 1011.4 |
| 20260505200402 | 83 | 151 | 3.0 | 7.0 | 0.00 | 0.00 | 0.00 | 79 | 1011.5 |
| 20260505200302 | 83 | 329 | 3.0 | 7.0 | 0.00 | 0.00 | 0.00 | 80 | 1011.4 |
| 20260505200202 | 83 | 223 | 2.0 | 7.0 | 0.00 | 0.00 | 0.00 | 79 | 1011.4 |
| 20260505200002 | 83 | 241 | 3.0 | 11.0 | 0.00 | 0.00 | 0.00 | 79 | 1011.4 |
| 20260505195901 | 83 | 274 | 3.0 | 11.0 | 0.00 | 0.00 | 0.00 | 80 | 1011.4 |
| 20260505195803 | 83 | 333 | 3.0 | 11.0 | 0.00 | 0.00 | 0.00 | 80 | 1011.5 |
| 20260505195703 | 83 | 102 | 3.0 | 11.0 | 0.00 | 0.00 | 0.00 | 80 | 1011.5 |
| 20260505195603 | 83 | 210 | 2.0 | 11.0 | 0.00 | 0.00 | 0.00 | 80 | 1011.6 |
| 20260505195503 | 83 | 182 | 2.0 | 11.0 | 0.00 | 0.00 | 0.00 | 80 | 1011.6 |
| 20260505195402 | 83 | 251 | 3.0 | 11.0 | 0.00 | 0.00 | 0.00 | 79 | 1011.6 |
| 20260505195305 | 83 | 120 | 4.0 | 11.0 | 0.00 | 0.00 | 0.00 | 79 | 1011.6 |
| 20260505195202 | 83 | 276 | 4.0 | 11.0 | 0.00 | 0.00 | 0.00 | 79 | 1011.7 |
| 20260505195103 | 83 | 247 | 3.0 | 9.0 | 0.00 | 0.00 | 0.00 | 79 | 1011.7 |
| 20260505195002 | 84 | 193 | 3.0 | 9.0 | 0.00 | 0.00 | 0.00 | 79 | 1011.6 |
| 20260505194901 | 84 | 353 | 2.0 | 11.0 | 0.00 | 0.00 | 0.00 | 80 | 1011.7 |
| 20260505194804 | 84 | 296 | 2.0 | 11.0 | 0.00 | 0.00 | 0.00 | 79 | 1011.7 |
| 20260505194702 | 83 | 247 | 2.0 | 11.0 | 0.00 | 0.00 | 0.00 | 80 | 1011.6 |
| 20260505194604 | 83 | 148 | 2.0 | 11.0 | 0.00 | 0.00 | 0.00 | 81 | 1011.7 |
| 20260505194504 | 83 | 138 | 3.0 | 11.0 | 0.00 | 0.00 | 0.00 | 80 | 1011.7 |
| 20260505194402 | 83 | 295 | 3.0 | 11.0 | 0.00 | 0.00 | 0.00 | 79 | 1011.7 |
| 20260505194302 | 83 | 76 | 2.0 | 11.0 | 0.00 | 0.00 | 0.00 | 80 | 1011.8 |
| 20260505194202 | 83 | 228 | 3.0 | 11.0 | 0.00 | 0.00 | 0.00 | 80 | 1011.8 |
| 20260505194104 | 83 | 309 | 4.0 | 11.0 | 0.00 | 0.00 | 0.00 | 80 | 1011.8 |
| 20260505194003 | 83 | 286 | 3.0 | 11.0 | 0.00 | 0.00 | 0.00 | 81 | 1011.9 |
| 20260505193902 | 82 | 196 | 3.0 | 6.0 | 0.00 | 0.00 | 0.00 | 81 | 1011.8 |
| 20260505193803 | 82 | 237 | 3.0 | 10.0 | 0.00 | 0.00 | 0.00 | 82 | 1011.9 |
| 20260505193704 | 82 | 127 | 3.0 | 10.0 | 0.00 | 0.00 | 0.00 | 81 | 1011.9 |
| 20260505193602 | 82 | 151 | 3.0 | 10.0 | 0.00 | 0.00 | 0.00 | 82 | 1011.9 |
| 20260505193502 | 82 | 155 | 2.0 | 10.0 | 0.00 | 0.00 | 0.00 | 82 | 1012.0 |
| 20260505193403 | 82 | 261 | 2.0 | 10.0 | 0.00 | 0.00 | 0.00 | 82 | 1011.9 |
| 20260505193303 | 81 | 313 | 2.0 | 10.0 | 0.00 | 0.00 | 0.00 | 82 | 1012.0 |
| 20260505193203 | 81 | 124 | 3.0 | 10.0 | 0.00 | 0.00 | 0.00 | 82 | 1012.0 |
| 20260505193103 | 81 | 124 | 3.0 | 10.0 | 0.00 | 0.00 | 0.00 | 82 | 1012.0 |
| 20260505193003 | 81 | 324 | 4.0 | 10.0 | 0.00 | 0.00 | 0.00 | 82 | 1012.0 |
| 20260505192902 | 81 | 121 | 3.0 | 10.0 | 0.00 | 0.00 | 0.00 | 82 | 1011.9 |
| 20260505192803 | 81 | 3 | 1.0 | 6.0 | 0.00 | 0.00 | 0.00 | 82 | 1012.0 |
| 20260505192703 | 81 | 7 | 2.0 | 6.0 | 0.00 | 0.00 | 0.00 | 82 | 1011.9 |
| 20260505192603 | 81 | 282 | 3.0 | 6.0 | 0.00 | 0.00 | 0.00 | 82 | 1012.0 |
| 20260505192502 | 81 | 244 | 2.0 | 6.0 | 0.00 | 0.00 | 0.00 | 82 | 1011.9 |
| 20260505192403 | 81 | 104 | 1.0 | 6.0 | 0.00 | 0.00 | 0.00 | 82 | 1012.0 |
| 20260505192305 | 82 | 326 | 2.0 | 6.0 | 0.00 | 0.00 | 0.00 | 82 | 1012.0 |
| 20260505192203 | 81 | 289 | 2.0 | 6.0 | 0.00 | 0.00 | 0.00 | 82 | 1011.9 |
| 20260505192103 | 82 | 303 | 3.0 | 7.0 | 0.00 | 0.00 | 0.00 | 82 | 1012.1 |
| 20260505192004 | 82 | 343 | 3.0 | 7.0 | 0.00 | 0.00 | 0.00 | 82 | 1012.0 |
| 20260505191902 | 82 | 111 | 2.0 | 7.0 | 0.00 | 0.00 | 0.00 | 82 | 1012.0 |
| 20260505191803 | 81 | 142 | 2.0 | 7.0 | 0.00 | 0.00 | 0.00 | 82 | 1012.0 |
| 20260505191703 | 81 | 48 | 3.0 | 7.0 | 0.00 | 0.00 | 0.00 | 82 | 1012.1 |
| 20260505191602 | 81 | 168 | 3.0 | 7.0 | 0.00 | 0.00 | 0.00 | 82 | 1012.0 |
| 20260505191504 | 81 | 252 | 2.0 | 7.0 | 0.00 | 0.00 | 0.00 | 82 | 1012.1 |
| 20260505191404 | 81 | 290 | 3.0 | 7.0 | 0.00 | 0.00 | 0.00 | 82 | 1012.0 |
| 20260505191303 | 81 | 116 | 3.0 | 7.0 | 0.00 | 0.00 | 0.00 | 83 | 1012.0 |
| 20260505191202 | 81 | 134 | 3.0 | 7.0 | 0.00 | 0.00 | 0.00 | 83 | 1012.0 |
| 20260505191102 | 81 | 265 | 2.0 | 6.0 | 0.00 | 0.00 | 0.00 | 83 | 1012.1 |
| 20260505191003 | 81 | 39 | 2.0 | 6.0 | 0.00 | 0.00 | 0.00 | 83 | 1012.0 |
| 20260505190904 | 81 | 10 | 2.0 | 6.0 | 0.00 | 0.00 | 0.00 | 84 | 1012.0 |
| 20260505190802 | 81 | 323 | 2.0 | 6.0 | 0.00 | 0.00 | 0.00 | 84 | 1012.0 |
| 20260505190703 | 81 | 343 | 2.0 | 6.0 | 0.00 | 0.00 | 0.00 | 83 | 1012.0 |
| 20260505190603 | 81 | 295 | 2.0 | 6.0 | 0.00 | 0.00 | 0.00 | 84 | 1012.0 |
| 20260505190502 | 80 | 348 | 2.0 | 6.0 | 0.00 | 0.00 | 0.00 | 84 | 1012.0 |
| 20260505190402 | 80 | 111 | 3.0 | 6.0 | 0.00 | 0.00 | 0.00 | 84 | 1012.0 |
| 20260505190302 | 80 | 49 | 2.0 | 6.0 | 0.00 | 0.00 | 0.00 | 84 | 1012.1 |
| 20260505190203 | 80 | 290 | 1.0 | 4.0 | 0.00 | 0.00 | 0.00 | 84 | 1012.2 |
| 20260505190004 | 80 | 292 | 1.0 | 5.0 | 0.00 | 0.00 | 0.00 | 84 | 1012.1 |
| 20260505185902 | 80 | 292 | 1.0 | 5.0 | 0.00 | 0.00 | 0.00 | 84 | 1012.2 |
| 20260505185802 | 80 | 292 | 1.0 | 5.0 | 0.00 | 0.00 | 0.00 | 84 | 1012.1 |
| 20260505185703 | 80 | 289 | 1.0 | 5.0 | 0.00 | 0.00 | 0.00 | 84 | 1012.2 |
| 20260505185603 | 80 | 289 | 2.0 | 5.0 | 0.00 | 0.00 | 0.00 | 84 | 1012.1 |
| 20260505185503 | 80 | 289 | 1.0 | 5.0 | 0.00 | 0.00 | 0.00 | 84 | 1012.1 |
| 20260505185402 | 80 | 278 | 1.0 | 5.0 | 0.00 | 0.00 | 0.00 | 84 | 1012.2 |
| 20260505185305 | 80 | 279 | 2.0 | 5.0 | 0.00 | 0.00 | 0.00 | 84 | 1012.2 |
| 20260505185202 | 80 | 275 | 2.0 | 5.0 | 0.00 | 0.00 | 0.00 | 83 | 1012.2 |
| 20260505185102 | 80 | 309 | 0.0 | 4.0 | 0.00 | 0.00 | 0.00 | 84 | 1012.2 |
| 20260505185003 | 80 | 309 | 1.0 | 4.0 | 0.00 | 0.00 | 0.00 | 83 | 1012.2 |
| 20260505184902 | 80 | 309 | 2.0 | 4.0 | 0.00 | 0.00 | 0.00 | 83 | 1012.2 |
| 20260505184802 | 80 | 319 | 1.0 | 4.0 | 0.00 | 0.00 | 0.00 | 83 | 1012.2 |
| 20260505184703 | 80 | 168 | 1.0 | 4.0 | 0.00 | 0.00 | 0.00 | 83 | 1012.2 |
| 20260505184604 | 80 | 168 | 2.0 | 4.0 | 0.00 | 0.00 | 0.00 | 83 | 1012.2 |
| 20260505184505 | 80 | 141 | 2.0 | 4.0 | 0.00 | 0.00 | 0.00 | 83 | 1012.3 |
| 20260505184402 | 80 | 235 | 2.0 | 6.0 | 0.00 | 0.00 | 0.00 | 83 | 1012.2 |
| 20260505184304 | 80 | 268 | 2.0 | 6.0 | 0.00 | 0.00 | 0.00 | 83 | 1012.2 |
| 20260505184202 | 81 | 290 | 2.0 | 6.0 | 0.00 | 0.00 | 0.00 | 83 | 1012.3 |
| 20260505184103 | 81 | 265 | 2.0 | 6.0 | 0.00 | 0.00 | 0.00 | 83 | 1012.2 |
| 20260505184003 | 81 | 193 | 2.0 | 6.0 | 0.00 | 0.00 | 0.00 | 83 | 1012.1 |
| 20260505183903 | 81 | 192 | 1.0 | 6.0 | 0.00 | 0.00 | 0.00 | 83 | 1012.2 |
| 20260505183802 | 81 | 128 | 1.0 | 6.0 | 0.00 | 0.00 | 0.00 | 83 | 1012.1 |
| 20260505183702 | 81 | 165 | 2.0 | 6.0 | 0.00 | 0.00 | 0.00 | 83 | 1012.2 |
| 20260505183603 | 81 | 166 | 3.0 | 6.0 | 0.00 | 0.00 | 0.00 | 83 | 1012.3 |
| 20260505183503 | 81 | 183 | 3.0 | 6.0 | 0.00 | 0.00 | 0.00 | 83 | 1012.2 |
| 20260505183402 | 81 | 258 | 2.0 | 9.0 | 0.00 | 0.00 | 0.00 | 83 | 1012.2 |
| 20260505183304 | 81 | 96 | 2.0 | 10.0 | 0.00 | 0.00 | 0.00 | 83 | 1012.2 |
| 20260505183203 | 81 | 302 | 1.0 | 10.0 | 0.00 | 0.00 | 0.00 | 83 | 1012.2 |
| 20260505183103 | 81 | 130 | 2.0 | 10.0 | 0.00 | 0.00 | 0.00 | 83 | 1012.2 |
| 20260505183002 | 81 | 130 | 2.0 | 10.0 | 0.00 | 0.00 | 0.00 | 83 | 1012.3 |
| 20260505182901 | 81 | 120 | 2.0 | 10.0 | 0.00 | 0.00 | 0.00 | 84 | 1012.3 |
| 20260505182802 | 81 | 196 | 2.0 | 10.0 | 0.00 | 0.00 | 0.00 | 83 | 1012.3 |
| 20260505182702 | 81 | 354 | 2.0 | 10.0 | 0.00 | 0.00 | 0.00 | 83 | 1012.3 |
| 20260505182603 | 81 | 193 | 4.0 | 10.0 | 0.00 | 0.00 | 0.00 | 83 | 1012.4 |
| 20260505182502 | 81 | 247 | 4.0 | 10.0 | 0.00 | 0.00 | 0.00 | 83 | 1012.4 |
| 20260505182402 | 81 | 300 | 2.0 | 10.0 | 0.00 | 0.00 | 0.00 | 83 | 1012.4 |
| 20260505182305 | 81 | 0 | 2.0 | 5.0 | 0.00 | 0.00 | 0.00 | 83 | 1012.4 |
| 20260505182202 | 81 | 179 | 1.0 | 4.0 | 0.00 | 0.00 | 0.00 | 83 | 1012.4 |
| 20260505182103 | 80 | 195 | 2.0 | 4.0 | 0.00 | 0.00 | 0.00 | 83 | 1012.3 |
| 20260505182003 | 80 | 234 | 2.0 | 4.0 | 0.00 | 0.00 | 0.00 | 83 | 1012.3 |
| 20260505181902 | 80 | 305 | 3.0 | 4.0 | 0.00 | 0.00 | 0.00 | 84 | 1012.2 |
| 20260505181802 | 80 | 299 | 3.0 | 4.0 | 0.00 | 0.00 | 0.00 | 84 | 1012.3 |
| 20260505181703 | 80 | 307 | 2.0 | 4.0 | 0.00 | 0.00 | 0.00 | 84 | 1012.3 |
| 20260505181603 | 80 | 307 | 2.0 | 7.0 | 0.00 | 0.00 | 0.00 | 84 | 1012.4 |
| 20260505181503 | 80 | 307 | 2.0 | 7.0 | 0.00 | 0.00 | 0.00 | 83 | 1012.2 |
| 20260505181402 | 80 | 197 | 2.0 | 7.0 | 0.00 | 0.00 | 0.00 | 83 | 1012.2 |
| 20260505181302 | 80 | 185 | 2.0 | 7.0 | 0.00 | 0.00 | 0.00 | 83 | 1012.3 |
| 20260505181203 | 80 | 188 | 2.0 | 7.0 | 0.00 | 0.00 | 0.00 | 83 | 1012.3 |
| 20260505181103 | 80 | 178 | 2.0 | 7.0 | 0.00 | 0.00 | 0.00 | 84 | 1012.4 |
| 20260505181004 | 80 | 290 | 2.0 | 7.0 | 0.00 | 0.00 | 0.00 | 83 | 1012.3 |
| 20260505180902 | 80 | 221 | 2.0 | 7.0 | 0.00 | 0.00 | 0.00 | 83 | 1012.3 |
| 20260505180804 | 80 | 113 | 3.0 | 7.0 | 0.00 | 0.00 | 0.00 | 83 | 1012.4 |
| 20260505180703 | 80 | 125 | 2.0 | 7.0 | 0.00 | 0.00 | 0.00 | 83 | 1012.4 |
| 20260505180604 | 80 | 320 | 2.0 | 6.0 | 0.00 | 0.00 | 0.00 | 83 | 1012.4 |
| 20260505180504 | 80 | 320 | 2.0 | 6.0 | 0.00 | 0.00 | 0.00 | 83 | 1012.4 |
| 20260505180402 | 81 | 199 | 3.0 | 6.0 | 0.00 | 0.00 | 0.00 | 84 | 1012.5 |
| 20260505180302 | 80 | 180 | 2.0 | 6.0 | 0.00 | 0.00 | 0.00 | 83 | 1012.5 |
| 20260505180204 | 80 | 319 | 1.0 | 6.0 | 0.00 | 0.00 | 0.00 | 83 | 1012.4 |
| 20260505180003 | 80 | 313 | 3.0 | 6.0 | 0.00 | 0.00 | 0.00 | 83 | 1012.4 |
| 20260505175902 | 80 | 292 | 3.0 | 6.0 | 0.00 | 0.00 | 0.00 | 83 | 1012.4 |
| 20260505175803 | 80 | 169 | 3.0 | 7.0 | 0.00 | 0.00 | 0.00 | 83 | 1012.4 |
| 20260505175703 | 80 | 334 | 3.0 | 7.0 | 0.00 | 0.00 | 0.00 | 83 | 1012.5 |
| 20260505175601 | 80 | 233 | 3.0 | 7.0 | 0.00 | 0.00 | 0.00 | 84 | 1012.5 |
| 20260505175504 | 80 | 137 | 2.0 | 7.0 | 0.00 | 0.00 | 0.00 | 84 | 1012.5 |
| 20260505175402 | 80 | 116 | 3.0 | 7.0 | 0.00 | 0.00 | 0.00 | 84 | 1012.4 |
| 20260505175305 | 80 | 281 | 3.0 | 7.0 | 0.00 | 0.00 | 0.00 | 84 | 1012.5 |
| 20260505175204 | 80 | 0 | 2.0 | 7.0 | 0.00 | 0.00 | 0.00 | 84 | 1012.5 |
| 20260505175102 | 80 | 0 | 2.0 | 7.0 | 0.00 | 0.00 | 0.00 | 84 | 1012.5 |
| 20260505175003 | 80 | 133 | 3.0 | 7.0 | 0.00 | 0.00 | 0.00 | 84 | 1012.5 |
| 20260505174902 | 80 | 117 | 3.0 | 7.0 | 0.00 | 0.00 | 0.00 | 84 | 1012.6 |
| 20260505174803 | 80 | 206 | 2.0 | 7.0 | 0.00 | 0.00 | 0.00 | 84 | 1012.5 |
| 20260505174702 | 80 | 125 | 2.0 | 7.0 | 0.00 | 0.00 | 0.00 | 84 | 1012.6 |
| 20260505174603 | 80 | 186 | 2.0 | 7.0 | 0.00 | 0.00 | 0.00 | 84 | 1012.6 |
| 20260505174504 | 80 | 197 | 1.0 | 7.0 | 0.00 | 0.00 | 0.00 | 84 | 1012.6 |
| 20260505174404 | 80 | 334 | 2.0 | 7.0 | 0.00 | 0.00 | 0.00 | 84 | 1012.6 |
| 20260505174304 | 80 | 155 | 3.0 | 7.0 | 0.00 | 0.00 | 0.00 | 84 | 1012.6 |
| 20260505174204 | 80 | 155 | 3.0 | 7.0 | 0.00 | 0.00 | 0.00 | 84 | 1012.6 |
| 20260505174102 | 80 | 316 | 2.0 | 7.0 | 0.00 | 0.00 | 0.00 | 84 | 1012.7 |
| 20260505174002 | 80 | 247 | 2.0 | 7.0 | 0.00 | 0.00 | 0.00 | 84 | 1012.7 |
| 20260505173902 | 80 | 142 | 2.0 | 7.0 | 0.00 | 0.00 | 0.00 | 84 | 1012.7 |
| 20260505173803 | 80 | 149 | 2.0 | 4.0 | 0.00 | 0.00 | 0.00 | 84 | 1012.7 |
| 20260505173703 | 80 | 262 | 1.0 | 4.0 | 0.00 | 0.00 | 0.00 | 84 | 1012.8 |
| 20260505173603 | 80 | 227 | 3.0 | 4.0 | 0.00 | 0.00 | 0.00 | 84 | 1012.7 |
| 20260505173504 | 80 | 227 | 3.0 | 6.0 | 0.00 | 0.00 | 0.00 | 84 | 1012.9 |
| 20260505173403 | 80 | 227 | 3.0 | 6.0 | 0.00 | 0.00 | 0.00 | 84 | 1012.9 |
| 20260505173304 | 80 | 227 | 3.0 | 6.0 | 0.00 | 0.00 | 0.00 | 84 | 1012.8 |
| 20260505173204 | 80 | 227 | 3.0 | 6.0 | 0.00 | 0.00 | 0.00 | 84 | 1012.8 |
| 20260505173104 | 80 | 320 | 3.0 | 6.0 | 0.00 | 0.00 | 0.00 | 84 | 1012.8 |
| 20260505173003 | 80 | 213 | 2.0 | 6.0 | 0.00 | 0.00 | 0.00 | 84 | 1012.8 |
| 20260505172904 | 80 | 162 | 2.0 | 6.0 | 0.00 | 0.00 | 0.00 | 84 | 1012.9 |
| 20260505172803 | 80 | 166 | 2.0 | 6.0 | 0.00 | 0.00 | 0.00 | 84 | 1012.9 |
| 20260505172703 | 80 | 168 | 3.0 | 9.0 | 0.00 | 0.00 | 0.00 | 84 | 1012.9 |
| 20260505172604 | 80 | 295 | 2.0 | 9.0 | 0.00 | 0.00 | 0.00 | 84 | 1012.9 |
| 20260505172502 | 80 | 281 | 2.0 | 9.0 | 0.00 | 0.00 | 0.00 | 85 | 1012.8 |
| 20260505172404 | 80 | 248 | 2.0 | 9.0 | 0.00 | 0.00 | 0.00 | 85 | 1012.8 |
| 20260505172301 | 80 | 269 | 1.0 | 9.0 | 0.00 | 0.00 | 0.00 | 85 | 1012.7 |
| 20260505172202 | 80 | 268 | 2.0 | 9.0 | 0.00 | 0.00 | 0.00 | 84 | 1012.8 |
| 20260505172103 | 80 | 269 | 2.0 | 9.0 | 0.00 | 0.00 | 0.00 | 84 | 1012.8 |
| 20260505172004 | 80 | 269 | 2.0 | 9.0 | 0.00 | 0.00 | 0.00 | 84 | 1012.8 |
| 20260505171901 | 80 | 271 | 3.0 | 9.0 | 0.00 | 0.00 | 0.00 | 84 | 1012.7 |
| 20260505171802 | 80 | 285 | 4.0 | 9.0 | 0.00 | 0.00 | 0.00 | 84 | 1012.8 |
| 20260505171704 | 80 | 224 | 3.0 | 7.0 | 0.00 | 0.00 | 0.00 | 84 | 1012.8 |
| 20260505171603 | 80 | 269 | 2.0 | 5.0 | 0.00 | 0.00 | 0.00 | 84 | 1012.8 |
| 20260505171504 | 79 | 252 | 3.0 | 5.0 | 0.00 | 0.00 | 0.00 | 84 | 1012.8 |
| 20260505171404 | 79 | 45 | 3.0 | 6.0 | 0.00 | 0.00 | 0.00 | 85 | 1012.8 |
| 20260505171302 | 79 | 252 | 1.0 | 6.0 | 0.00 | 0.00 | 0.00 | 85 | 1012.9 |
| 20260505171203 | 79 | 140 | 2.0 | 6.0 | 0.00 | 0.00 | 0.00 | 85 | 1012.8 |
| 20260505171103 | 79 | 142 | 2.0 | 6.0 | 0.00 | 0.00 | 0.00 | 85 | 1012.8 |
| 20260505171004 | 79 | 227 | 2.0 | 6.0 | 0.00 | 0.00 | 0.00 | 85 | 1012.9 |
| 20260505170903 | 79 | 306 | 1.0 | 6.0 | 0.00 | 0.00 | 0.00 | 85 | 1012.8 |
| 20260505170802 | 79 | 17 | 2.0 | 6.0 | 0.00 | 0.00 | 0.00 | 85 | 1013.0 |
| 20260505170702 | 79 | 0 | 2.0 | 6.0 | 0.00 | 0.00 | 0.00 | 85 | 1012.9 |
| 20260505170602 | 79 | 125 | 3.0 | 6.0 | 0.00 | 0.00 | 0.00 | 85 | 1012.8 |
| 20260505170503 | 79 | 125 | 4.0 | 6.0 | 0.00 | 0.00 | 0.00 | 85 | 1012.9 |
| 20260505170404 | 79 | 305 | 3.0 | 6.0 | 0.00 | 0.00 | 0.00 | 85 | 1012.9 |
| 20260505170305 | 79 | 319 | 3.0 | 6.0 | 0.00 | 0.00 | 0.00 | 85 | 1012.8 |
| 20260505170203 | 79 | 286 | 4.0 | 6.0 | 0.00 | 0.00 | 0.00 | 85 | 1012.9 |
| 20260505170004 | 79 | 212 | 1.0 | 5.0 | 0.00 | 0.00 | 0.00 | 85 | 1012.9 |
| 20260505165903 | 79 | 323 | 2.0 | 5.0 | 0.00 | 0.00 | 0.00 | 85 | 1013.0 |
| 20260505165804 | 79 | 323 | 2.0 | 5.0 | 0.00 | 0.00 | 0.00 | 85 | 1012.9 |
| 20260505165703 | 79 | 323 | 2.0 | 5.0 | 0.00 | 0.00 | 0.00 | 85 | 1013.0 |
| 20260505165603 | 79 | 21 | 3.0 | 5.0 | 0.00 | 0.00 | 0.00 | 85 | 1012.9 |
| 20260505165505 | 79 | 0 | 2.0 | 5.0 | 0.00 | 0.00 | 0.00 | 85 | 1013.0 |
| 20260505165402 | 79 | 238 | 2.0 | 5.0 | 0.00 | 0.00 | 0.00 | 85 | 1012.9 |
| 20260505165305 | 79 | 219 | 2.0 | 7.0 | 0.00 | 0.00 | 0.00 | 85 | 1012.9 |
| 20260505165205 | 79 | 316 | 2.0 | 7.0 | 0.00 | 0.00 | 0.00 | 85 | 1013.0 |
| 20260505165103 | 79 | 63 | 2.0 | 7.0 | 0.00 | 0.00 | 0.00 | 85 | 1012.9 |
| 20260505165005 | 79 | 165 | 2.0 | 7.0 | 0.00 | 0.00 | 0.00 | 85 | 1013.0 |
| 20260505164901 | 79 | 320 | 2.0 | 7.0 | 0.00 | 0.00 | 0.00 | 85 | 1013.0 |
| 20260505164802 | 79 | 210 | 2.0 | 7.0 | 0.00 | 0.00 | 0.00 | 85 | 1013.0 |
| 20260505164704 | 79 | 336 | 2.0 | 7.0 | 0.00 | 0.00 | 0.00 | 85 | 1013.0 |
| 20260505164602 | 79 | 228 | 2.0 | 7.0 | 0.00 | 0.00 | 0.00 | 85 | 1013.0 |
| 20260505164504 | 79 | 149 | 3.0 | 7.0 | 0.00 | 0.00 | 0.00 | 85 | 1013.0 |
| 20260505164402 | 79 | 154 | 4.0 | 7.0 | 0.00 | 0.00 | 0.00 | 85 | 1013.0 |
| 20260505164304 | 79 | 152 | 2.0 | 5.0 | 0.00 | 0.00 | 0.00 | 85 | 1013.0 |
| 20260505164201 | 79 | 155 | 2.0 | 9.0 | 0.00 | 0.00 | 0.00 | 85 | 1013.0 |
| 20260505164102 | 79 | 275 | 2.0 | 9.0 | 0.00 | 0.00 | 0.00 | 85 | 1013.0 |
| 20260505164003 | 79 | 216 | 2.0 | 9.0 | 0.00 | 0.00 | 0.00 | 85 | 1013.0 |
| 20260505163903 | 79 | 68 | 2.0 | 9.0 | 0.00 | 0.00 | 0.00 | 85 | 1013.0 |
| 20260505163803 | 79 | 68 | 3.0 | 9.0 | 0.00 | 0.00 | 0.00 | 85 | 1013.0 |
| 20260505163703 | 79 | 131 | 2.0 | 9.0 | 0.00 | 0.00 | 0.00 | 85 | 1012.9 |
| 20260505163603 | 79 | 238 | 2.0 | 9.0 | 0.00 | 0.00 | 0.00 | 85 | 1013.0 |
| 20260505163502 | 79 | 155 | 2.0 | 9.0 | 0.00 | 0.00 | 0.00 | 85 | 1013.0 |
| 20260505163403 | 79 | 120 | 2.0 | 9.0 | 0.00 | 0.00 | 0.00 | 85 | 1012.9 |
| 20260505163302 | 79 | 86 | 2.0 | 9.0 | 0.00 | 0.00 | 0.00 | 85 | 1012.9 |
| 20260505163202 | 79 | 355 | 1.0 | 5.0 | 0.00 | 0.00 | 0.00 | 85 | 1012.9 |
| 20260505163103 | 79 | 168 | 1.0 | 5.0 | 0.00 | 0.00 | 0.00 | 85 | 1012.8 |
| 20260505163003 | 79 | 169 | 2.0 | 5.0 | 0.00 | 0.00 | 0.00 | 85 | 1012.9 |
| 20260505162904 | 79 | 138 | 2.0 | 5.0 | 0.00 | 0.00 | 0.00 | 85 | 1012.9 |
| 20260505162804 | 79 | 283 | 3.0 | 5.0 | 0.00 | 0.00 | 0.00 | 85 | 1012.9 |
| 20260505162702 | 78 | 353 | 2.0 | 5.0 | 0.00 | 0.00 | 0.00 | 86 | 1012.9 |
| 20260505162602 | 78 | 271 | 2.0 | 5.0 | 0.00 | 0.00 | 0.00 | 86 | 1013.0 |
| 20260505162503 | 79 | 264 | 2.0 | 5.0 | 0.00 | 0.00 | 0.00 | 86 | 1012.9 |
| 20260505162402 | 78 | 312 | 2.0 | 5.0 | 0.00 | 0.00 | 0.00 | 86 | 1012.9 |
| 20260505162306 | 78 | 0 | 2.0 | 5.0 | 0.00 | 0.00 | 0.00 | 85 | 1013.0 |
| 20260505162203 | 78 | 345 | 1.0 | 5.0 | 0.00 | 0.00 | 0.00 | 85 | 1013.0 |
| 20260505162102 | 78 | 329 | 2.0 | 5.0 | 0.00 | 0.00 | 0.00 | 85 | 1013.0 |
| 20260505162002 | 78 | 313 | 2.0 | 5.0 | 0.00 | 0.00 | 0.00 | 86 | 1012.9 |
| 20260505161903 | 79 | 192 | 2.0 | 5.0 | 0.00 | 0.00 | 0.00 | 85 | 1013.0 |
| 20260505161802 | 78 | 142 | 3.0 | 5.0 | 0.00 | 0.00 | 0.00 | 85 | 1012.9 |
| 20260505161702 | 79 | 159 | 4.0 | 5.0 | 0.00 | 0.00 | 0.00 | 86 | 1012.9 |
| 20260505161603 | 78 | 182 | 2.0 | 5.0 | 0.00 | 0.00 | 0.00 | 86 | 1012.8 |
| 20260505161505 | 78 | 182 | 2.0 | 5.0 | 0.00 | 0.00 | 0.00 | 86 | 1012.9 |
| 20260505161404 | 78 | 344 | 2.0 | 5.0 | 0.00 | 0.00 | 0.00 | 86 | 1012.9 |
| 20260505161304 | 78 | 348 | 2.0 | 5.0 | 0.00 | 0.00 | 0.00 | 86 | 1012.8 |
| 20260505161202 | 78 | 210 | 1.0 | 9.0 | 0.00 | 0.00 | 0.00 | 86 | 1012.9 |
| 20260505161102 | 78 | 214 | 2.0 | 9.0 | 0.00 | 0.00 | 0.00 | 86 | 1012.9 |
| 20260505161002 | 78 | 224 | 2.0 | 9.0 | 0.00 | 0.00 | 0.00 | 86 | 1012.9 |
| 20260505160903 | 78 | 327 | 2.0 | 9.0 | 0.00 | 0.00 | 0.00 | 86 | 1012.9 |
| 20260505160803 | 78 | 302 | 2.0 | 9.0 | 0.00 | 0.00 | 0.00 | 86 | 1012.8 |
| 20260505160703 | 78 | 231 | 2.0 | 9.0 | 0.00 | 0.00 | 0.00 | 86 | 1012.9 |
| 20260505160603 | 78 | 228 | 1.0 | 9.0 | 0.00 | 0.00 | 0.00 | 86 | 1012.8 |
| 20260505160504 | 78 | 295 | 2.0 | 9.0 | 0.00 | 0.00 | 0.00 | 86 | 1012.8 |
| 20260505160403 | 78 | 303 | 4.0 | 9.0 | 0.00 | 0.00 | 0.00 | 86 | 1012.8 |
| 20260505160301 | 78 | 358 | 4.0 | 9.0 | 0.00 | 0.00 | 0.00 | 86 | 1012.8 |
| 20260505160204 | 78 | 228 | 3.0 | 7.0 | 0.00 | 0.00 | 0.00 | 86 | 1012.8 |
| 20260505153349 | 77 | 140 | 1.0 | 4.0 | 0.00 | 0.00 | 0.00 | 87 | 1012.7 |
| 20260505153247 | 77 | 173 | 1.0 | 4.0 | 0.00 | 0.00 | 0.00 | 87 | 1012.7 |
| 20260505153145 | 77 | 172 | 1.0 | 4.0 | 0.00 | 0.00 | 0.00 | 87 | 1012.6 |
| 20260505153043 | 77 | 172 | 1.0 | 4.0 | 0.00 | 0.00 | 0.00 | 87 | 1012.7 |
| 20260505152942 | 77 | 300 | 1.0 | 4.0 | 0.00 | 0.00 | 0.00 | 87 | 1012.6 |
| 20260505152841 | 77 | 300 | 1.0 | 4.0 | 0.00 | 0.00 | 0.00 | 87 | 1012.6 |
| 20260505152739 | 77 | 300 | 1.0 | 5.0 | 0.00 | 0.00 | 0.00 | 87 | 1012.6 |
| 20260505152637 | 78 | 151 | 1.0 | 5.0 | 0.00 | 0.00 | 0.00 | 87 | 1012.6 |
| 20260505152537 | 78 | 151 | 2.0 | 5.0 | 0.00 | 0.00 | 0.00 | 86 | 1012.5 |
| 20260505152434 | 78 | 290 | 2.0 | 5.0 | 0.00 | 0.00 | 0.00 | 86 | 1012.5 |
| 20260505152332 | 78 | 309 | 2.0 | 5.0 | 0.00 | 0.00 | 0.00 | 86 | 1012.5 |
| 20260505152233 | 78 | 343 | 2.0 | 5.0 | 0.00 | 0.00 | 0.00 | 86 | 1012.5 |
| 20260505152134 | 78 | 127 | 1.0 | 5.0 | 0.00 | 0.00 | 0.00 | 86 | 1012.5 |
| 20260505152033 | 78 | 125 | 2.0 | 5.0 | 0.00 | 0.00 | 0.00 | 86 | 1012.5 |
| 20260505151932 | 78 | 125 | 2.0 | 5.0 | 0.00 | 0.00 | 0.00 | 86 | 1012.5 |
| 20260505151832 | 78 | 127 | 2.0 | 4.0 | 0.00 | 0.00 | 0.00 | 86 | 1012.5 |
| 20260505151733 | 78 | 172 | 2.0 | 4.0 | 0.00 | 0.00 | 0.00 | 86 | 1012.5 |
| 20260505151632 | 78 | 54 | 2.0 | 4.0 | 0.00 | 0.00 | 0.00 | 87 | 1012.5 |
| 20260505151533 | 78 | 128 | 2.0 | 5.0 | 0.00 | 0.00 | 0.00 | 87 | 1012.5 |
| 20260505151432 | 78 | 193 | 0.0 | 5.0 | 0.00 | 0.00 | 0.00 | 87 | 1012.6 |
| 20260505151332 | 78 | 192 | 1.0 | 5.0 | 0.00 | 0.00 | 0.00 | 86 | 1012.6 |
| 20260505151232 | 78 | 192 | 2.0 | 5.0 | 0.00 | 0.00 | 0.00 | 86 | 1012.6 |
| 20260505151132 | 78 | 212 | 2.0 | 5.0 | 0.00 | 0.00 | 0.00 | 86 | 1012.6 |
| 20260505151034 | 78 | 45 | 2.0 | 5.0 | 0.00 | 0.00 | 0.00 | 86 | 1012.6 |
| 20260505150932 | 78 | 49 | 2.0 | 5.0 | 0.00 | 0.00 | 0.00 | 86 | 1012.6 |
| 20260505150830 | 78 | 103 | 2.0 | 5.0 | 0.00 | 0.00 | 0.00 | 87 | 1012.7 |
| 20260505150731 | 78 | 59 | 2.0 | 5.0 | 0.00 | 0.00 | 0.00 | 87 | 1012.6 |
| 20260505150628 | 78 | 281 | 2.0 | 5.0 | 0.00 | 0.00 | 0.00 | 87 | 1012.7 |
| 20260505150526 | 78 | 306 | 2.0 | 5.0 | 0.00 | 0.00 | 0.00 | 87 | 1012.7 |
| 20260505150425 | 78 | 278 | 2.0 | 6.0 | 0.00 | 0.00 | 0.00 | 87 | 1012.6 |
| 20260505150325 | 77 | 281 | 2.0 | 6.0 | 0.00 | 0.00 | 0.00 | 87 | 1012.6 |
| 20260505150227 | 77 | 296 | 3.0 | 7.0 | 0.00 | 0.00 | 0.00 | 87 | 1012.6 |
| 20260505150124 | 77 | 298 | 3.0 | 10.0 | 0.00 | 0.00 | 0.00 | 87 | 1012.6 |
| 20260505140631 | 76 | 121 | 2.0 | 5.0 | 0.00 | 0.00 | 0.00 | 90 | 1012.4 |
| 20260505140532 | 76 | 121 | 2.0 | 5.0 | 0.00 | 0.00 | 0.00 | 90 | 1012.4 |
| 20260505140432 | 76 | 69 | 2.0 | 3.0 | 0.00 | 0.00 | 0.00 | 90 | 1012.4 |
| 20260505140332 | 0 | 97 | 1.0 | 3.0 | 0.00 | 0.00 | 0.00 | 1012.5 | |
| 20260505140232 | 75 | 10 | 1.0 | 3.0 | 0.00 | 0.00 | 0.00 | 90 | 1012.5 |
| 20260505140132 | 75 | 10 | 1.0 | 3.0 | 0.00 | 0.00 | 0.00 | 90 | 1012.5 |
| 20260505130303 | 74 | 0 | 1.0 | 5.0 | 0.00 | 0.00 | 0.00 | 91 | 1012.0 |
| 20260505130203 | 74 | 261 | 1.0 | 5.0 | 0.00 | 0.00 | 0.00 | 91 | 1012.0 |
| 20260505124946 | 74 | 350 | 1.0 | 7.0 | 0.00 | 0.00 | 0.00 | 91 | 1012.2 |
| 20260505124845 | 74 | 350 | 2.0 | 7.0 | 0.00 | 0.00 | 0.00 | 91 | 1012.1 |
| 20260505124743 | 74 | 348 | 2.0 | 7.0 | 0.00 | 0.00 | 0.00 | 91 | 1012.2 |
| 20260505124643 | 74 | 341 | 1.0 | 7.0 | 0.00 | 0.00 | 0.00 | 91 | 1012.2 |
| 20260505124541 | 74 | 120 | 0.0 | 7.0 | 0.00 | 0.00 | 0.00 | 91 | 1012.2 |
| 20260505124439 | 74 | 120 | 1.0 | 7.0 | 0.00 | 0.00 | 0.00 | 91 | 1012.1 |
| 20260505124338 | 74 | 120 | 2.0 | 7.0 | 0.00 | 0.00 | 0.00 | 91 | 1012.1 |
| 20260505124236 | 74 | 116 | 2.0 | 7.0 | 0.00 | 0.00 | 0.00 | 91 | 1012.1 |
| 20260505124133 | 74 | 49 | 1.0 | 3.0 | 0.00 | 0.00 | 0.00 | 91 | 1012.2 |
| 20260505124031 | 74 | 49 | 1.0 | 3.0 | 0.00 | 0.00 | 0.00 | 91 | 1012.2 |
| 20260505123931 | 74 | 145 | 1.0 | 3.0 | 0.00 | 0.00 | 0.00 | 92 | 1012.2 |
| 20260505123831 | 74 | 147 | 1.0 | 3.0 | 0.00 | 0.00 | 0.00 | 92 | 1012.2 |
| 20260505123731 | 74 | 65 | 0.0 | 3.0 | 0.00 | 0.00 | 0.00 | 92 | 1012.3 |
| 20260505123633 | 74 | 47 | 0.0 | 3.0 | 0.00 | 0.00 | 0.00 | 92 | 1012.2 |
| 20260505123531 | 74 | 47 | 0.0 | 3.0 | 0.00 | 0.00 | 0.00 | 92 | 1012.2 |
| 20260505123431 | 74 | 47 | 1.0 | 3.0 | 0.00 | 0.00 | 0.00 | 92 | 1012.2 |
| 20260505123331 | 74 | 47 | 1.0 | 4.0 | 0.00 | 0.00 | 0.00 | 92 | 1012.2 |
| 20260505123231 | 73 | 47 | 1.0 | 4.0 | 0.00 | 0.00 | 0.00 | 92 | 1012.0 |
| 20260505123132 | 73 | 154 | 1.0 | 4.0 | 0.00 | 0.00 | 0.00 | 92 | 1012.0 |
| 20260505123032 | 73 | 221 | 1.0 | 4.0 | 0.00 | 0.00 | 0.00 | 92 | 1012.1 |
| 20260505122932 | 73 | 123 | 1.0 | 4.0 | 0.00 | 0.00 | 0.00 | 92 | 1012.1 |
| 20260505122831 | 73 | 118 | 0.0 | 4.0 | 0.00 | 0.00 | 0.00 | 92 | 1012.1 |
| 20260505122732 | 73 | 55 | 0.0 | 4.0 | 0.00 | 0.00 | 0.00 | 92 | 1012.2 |
| 20260505122634 | 73 | 52 | 1.0 | 4.0 | 0.00 | 0.00 | 0.00 | 92 | 1012.1 |
| 20260505122532 | 73 | 52 | 2.0 | 4.0 | 0.00 | 0.00 | 0.00 | 92 | 1012.2 |
| 20260505122432 | 73 | 51 | 2.0 | 4.0 | 0.00 | 0.00 | 0.00 | 92 | 1012.2 |
| 20260505122331 | 73 | 127 | 1.0 | 4.0 | 0.00 | 0.00 | 0.00 | 92 | 1012.2 |
| 20260505122232 | 73 | 127 | 0.0 | 4.0 | 0.00 | 0.00 | 0.00 | 92 | 1012.3 |
| 20260505122132 | 73 | 127 | 1.0 | 4.0 | 0.00 | 0.00 | 0.00 | 92 | 1012.1 |
| 20260505122032 | 73 | 127 | 2.0 | 4.0 | 0.00 | 0.00 | 0.00 | 92 | 1012.1 |
| 20260505121933 | 73 | 128 | 2.0 | 4.0 | 0.00 | 0.00 | 0.00 | 92 | 1012.1 |
| 20260505121832 | 73 | 31 | 1.0 | 4.0 | 0.00 | 0.00 | 0.00 | 92 | 1012.1 |
| 20260505121731 | 73 | 31 | 0.0 | 4.0 | 0.00 | 0.00 | 0.00 | 92 | 1012.0 |
| 20260505121631 | 73 | 31 | 1.0 | 4.0 | 0.00 | 0.00 | 0.00 | 92 | 1012.0 |
| 20260505121532 | 73 | 31 | 1.0 | 4.0 | 0.00 | 0.00 | 0.00 | 92 | 1011.9 |
| 20260505121433 | 73 | 31 | 1.0 | 4.0 | 0.00 | 0.00 | 0.00 | 92 | 1011.9 |
| 20260505121331 | 73 | 30 | 2.0 | 4.0 | 0.00 | 0.00 | 0.00 | 92 | 1011.9 |
| 20260505121233 | 73 | 30 | 2.0 | 4.0 | 0.00 | 0.00 | 0.00 | 92 | 1011.8 |
| 20260505121131 | 73 | 128 | 1.0 | 4.0 | 0.00 | 0.00 | 0.00 | 92 | 1011.8 |
| 20260505121030 | 73 | 130 | 1.0 | 4.0 | 0.00 | 0.00 | 0.00 | 92 | 1011.8 |
| 20260505120932 | 73 | 130 | 1.0 | 4.0 | 0.00 | 0.00 | 0.00 | 92 | 1011.7 |
| 20260505120832 | 73 | 259 | 1.0 | 4.0 | 0.00 | 0.00 | 0.00 | 92 | 1011.7 |
| 20260505120731 | 73 | 258 | 1.0 | 4.0 | 0.00 | 0.00 | 0.00 | 92 | 1011.7 |
| 20260505120632 | 73 | 259 | 1.0 | 4.0 | 0.00 | 0.00 | 0.00 | 92 | 1011.7 |
| 20260505120532 | 73 | 258 | 0.0 | 4.0 | 0.00 | 0.00 | 0.00 | 92 | 1011.7 |
| 20260505120432 | 73 | 247 | 1.0 | 4.0 | 0.00 | 0.00 | 0.00 | 92 | 1011.8 |
| 20260505120331 | 73 | 248 | 1.0 | 4.0 | 0.00 | 0.00 | 0.00 | 92 | 1011.7 |
| 20260505120229 | 73 | 250 | 1.0 | 4.0 | 0.00 | 0.00 | 0.00 | 92 | 1011.8 |
| 20260505120129 | 73 | 111 | 0.0 | 2.0 | 0.00 | 0.00 | 0.00 | 92 | 1011.7 |
| 20260505120026 | 73 | 111 | 1.0 | 2.0 | 0.00 | 0.00 | 0.00 | 92 | 1011.7 |
| 20260505115925 | 73 | 111 | 1.0 | 2.0 | 0.00 | 0.00 | 0.00 | 92 | 1011.7 |
| 20260505115825 | 73 | 123 | 1.0 | 2.0 | 0.00 | 0.00 | 0.00 | 92 | 1011.7 |
| 20260505115725 | 73 | 161 | 1.0 | 2.0 | 0.00 | 0.00 | 0.00 | 92 | 1011.6 |
| 20260505115625 | 73 | 124 | 0.0 | 2.0 | 0.00 | 0.00 | 0.00 | 92 | 1011.6 |
| 20260505115525 | 73 | 124 | 1.0 | 3.0 | 0.00 | 0.00 | 0.00 | 92 | 1011.6 |
| 20260505115424 | 73 | 124 | 1.0 | 3.0 | 0.00 | 0.00 | 0.00 | 92 | 1011.7 |
| 20260505115325 | 73 | 133 | 1.0 | 3.0 | 0.00 | 0.00 | 0.00 | 92 | 1011.6 |
| 20260505115225 | 73 | 87 | 1.0 | 3.0 | 0.00 | 0.00 | 0.00 | 92 | 1011.7 |
| 20260505115126 | 73 | 87 | 1.0 | 3.0 | 0.00 | 0.00 | 0.00 | 92 | 1011.8 |
| 20260505115026 | 73 | 89 | 1.0 | 3.0 | 0.00 | 0.00 | 0.00 | 92 | 1011.8 |
| 20260505114926 | 73 | 89 | 1.0 | 3.0 | 0.00 | 0.00 | 0.00 | 91 | 1011.8 |
| 20260505114825 | 73 | 89 | 1.0 | 3.0 | 0.00 | 0.00 | 0.00 | 91 | 1011.9 |
| 20260505114725 | 73 | 89 | 2.0 | 3.0 | 0.00 | 0.00 | 0.00 | 91 | 1011.9 |
| 20260505114624 | 73 | 89 | 2.0 | 3.0 | 0.00 | 0.00 | 0.00 | 91 | 1011.9 |
| 20260505114524 | 73 | 141 | 1.0 | 3.0 | 0.00 | 0.00 | 0.00 | 91 | 1012.0 |
| 20260505114424 | 73 | 209 | 0.0 | 3.0 | 0.00 | 0.00 | 0.00 | 91 | 1011.9 |
| 20260505114324 | 73 | 209 | 0.0 | 3.0 | 0.00 | 0.00 | 0.00 | 91 | 1012.0 |
| 20260505114226 | 73 | 209 | 1.0 | 3.0 | 0.00 | 0.00 | 0.00 | 91 | 1012.0 |
| 20260505114124 | 73 | 209 | 1.0 | 3.0 | 0.00 | 0.00 | 0.00 | 91 | 1012.1 |
| 20260505114026 | 73 | 209 | 1.0 | 3.0 | 0.00 | 0.00 | 0.00 | 91 | 1012.1 |
| 20260505113924 | 73 | 212 | 1.0 | 3.0 | 0.00 | 0.00 | 0.00 | 91 | 1012.1 |
| 20260505113824 | 73 | 212 | 1.0 | 3.0 | 0.00 | 0.00 | 0.00 | 91 | 1012.2 |
| 20260505113725 | 73 | 237 | 0.0 | 3.0 | 0.00 | 0.00 | 0.00 | 91 | 1012.1 |
| 20260505113624 | 73 | 237 | 0.0 | 3.0 | 0.00 | 0.00 | 0.00 | 91 | 1012.0 |
| 20260505113525 | 73 | 283 | 1.0 | 3.0 | 0.00 | 0.00 | 0.00 | 91 | 1012.1 |
| 20260505113424 | 73 | 282 | 1.0 | 3.0 | 0.00 | 0.00 | 0.00 | 91 | 1012.1 |
| 20260505113325 | 73 | 282 | 2.0 | 3.0 | 0.00 | 0.00 | 0.00 | 91 | 1012.1 |
| 20260505113224 | 73 | 97 | 1.0 | 3.0 | 0.00 | 0.00 | 0.00 | 91 | 1012.0 |
| 20260505113124 | 73 | 49 | 1.0 | 3.0 | 0.00 | 0.00 | 0.00 | 91 | 1012.0 |
| 20260505113025 | 73 | 16 | 2.0 | 4.0 | 0.00 | 0.00 | 0.00 | 91 | 1011.9 |
| 20260505112925 | 73 | 14 | 2.0 | 7.0 | 0.00 | 0.00 | 0.00 | 91 | 1011.9 |
| 20260505112824 | 73 | 157 | 2.0 | 7.0 | 0.00 | 0.00 | 0.00 | 91 | 1011.8 |
| 20260505112725 | 73 | 110 | 1.0 | 7.0 | 0.00 | 0.00 | 0.00 | 91 | 1011.8 |
| 20260505112627 | 73 | 110 | 1.0 | 7.0 | 0.00 | 0.00 | 0.00 | 91 | 1011.8 |
| 20260505112525 | 73 | 110 | 1.0 | 7.0 | 0.00 | 0.00 | 0.00 | 91 | 1011.7 |
| 20260505112426 | 73 | 14 | 1.0 | 7.0 | 0.00 | 0.00 | 0.00 | 91 | 1011.8 |
| 20260505112326 | 73 | 6 | 1.0 | 7.0 | 0.00 | 0.00 | 0.00 | 91 | 1011.9 |
| 20260505112224 | 73 | 6 | 2.0 | 7.0 | 0.00 | 0.00 | 0.00 | 91 | 1011.8 |
| 20260505112124 | 73 | 113 | 2.0 | 7.0 | 0.00 | 0.00 | 0.00 | 91 | 1011.9 |
| 20260505112024 | 73 | 213 | 2.0 | 7.0 | 0.00 | 0.00 | 0.00 | 91 | 1011.8 |
| 20260505111925 | 73 | 121 | 2.0 | 5.0 | 0.00 | 0.00 | 0.00 | 91 | 1011.8 |
| 20260505111824 | 73 | 231 | 2.0 | 7.0 | 0.00 | 0.00 | 0.00 | 91 | 1011.8 |
| 20260505111724 | 73 | 34 | 1.0 | 7.0 | 0.00 | 0.00 | 0.00 | 91 | 1011.7 |
| 20260505111625 | 73 | 38 | 2.0 | 7.0 | 0.00 | 0.00 | 0.00 | 91 | 1011.8 |
| 20260505111525 | 73 | 31 | 1.0 | 7.0 | 0.00 | 0.00 | 0.00 | 91 | 1011.7 |
| 20260505111424 | 73 | 314 | 2.0 | 7.0 | 0.00 | 0.00 | 0.00 | 91 | 1011.7 |
| 20260505111324 | 73 | 292 | 2.0 | 7.0 | 0.00 | 0.00 | 0.00 | 91 | 1011.7 |
| 20260505111223 | 73 | 144 | 1.0 | 7.0 | 0.00 | 0.00 | 0.00 | 91 | 1011.7 |
| 20260505111124 | 73 | 145 | 1.0 | 7.0 | 0.00 | 0.00 | 0.00 | 91 | 1011.7 |
| 20260505111023 | 73 | 145 | 2.0 | 7.0 | 0.00 | 0.00 | 0.00 | 91 | 1011.6 |
| 20260505110923 | 73 | 145 | 2.0 | 7.0 | 0.00 | 0.00 | 0.00 | 91 | 1011.6 |
| 20260505110824 | 73 | 82 | 1.0 | 6.0 | 0.00 | 0.00 | 0.00 | 91 | 1011.6 |
| 20260505110725 | 73 | 75 | 1.0 | 6.0 | 0.00 | 0.00 | 0.00 | 91 | 1011.6 |
| 20260505110625 | 73 | 137 | 1.0 | 6.0 | 0.00 | 0.00 | 0.00 | 91 | 1011.6 |
| 20260505110524 | 73 | 192 | 1.0 | 6.0 | 0.00 | 0.00 | 0.00 | 91 | 1011.7 |
| 20260505110424 | 73 | 192 | 1.0 | 6.0 | 0.00 | 0.00 | 0.00 | 91 | 1011.7 |
| 20260505110323 | 73 | 199 | 1.0 | 6.0 | 0.00 | 0.00 | 0.00 | 91 | 1011.7 |
| 20260505110226 | 73 | 203 | 2.0 | 6.0 | 0.00 | 0.00 | 0.00 | 91 | 1011.7 |
| 20260505110124 | 73 | 94 | 2.0 | 6.0 | 0.00 | 0.00 | 0.00 | 91 | 1011.7 |
| 20260505102205 | 72 | 121 | 1.0 | 4.0 | 0.00 | 0.00 | 0.00 | 91 | 1011.8 |
| 20260505102101 | 72 | 121 | 2.0 | 4.0 | 0.00 | 0.00 | 0.00 | 91 | 1011.8 |
| 20260505102006 | 72 | 166 | 2.0 | 4.0 | 0.00 | 0.00 | 0.00 | 91 | 1011.8 |
| 20260505101905 | 72 | 41 | 2.0 | 4.0 | 0.00 | 0.00 | 0.00 | 91 | 1011.7 |
| 20260505101803 | 72 | 130 | 1.0 | 4.0 | 0.00 | 0.00 | 0.00 | 91 | 1011.7 |
| 20260505101704 | 72 | 133 | 1.0 | 4.0 | 0.00 | 0.00 | 0.00 | 91 | 1011.8 |
| 20260505101602 | 72 | 133 | 2.0 | 4.0 | 0.00 | 0.00 | 0.00 | 91 | 1011.8 |
| 20260505101502 | 72 | 133 | 2.0 | 4.0 | 0.00 | 0.00 | 0.00 | 91 | 1011.9 |
| 20260505101405 | 72 | 186 | 1.0 | 3.0 | 0.00 | 0.00 | 0.00 | 91 | 1011.9 |
| 20260505101303 | 72 | 212 | 0.0 | 3.0 | 0.00 | 0.00 | 0.00 | 91 | 1011.9 |
| 20260505101202 | 72 | 212 | 1.0 | 3.0 | 0.00 | 0.00 | 0.00 | 91 | 1011.9 |
| 20260505101102 | 72 | 212 | 1.0 | 3.0 | 0.00 | 0.00 | 0.00 | 91 | 1011.8 |
| 20260505101004 | 72 | 212 | 1.0 | 3.0 | 0.00 | 0.00 | 0.00 | 91 | 1012.0 |
| 20260505100903 | 72 | 212 | 1.0 | 3.0 | 0.00 | 0.00 | 0.00 | 91 | 1011.9 |
| 20260505100802 | 72 | 210 | 1.0 | 3.0 | 0.00 | 0.00 | 0.00 | 91 | 1012.0 |
| 20260505100703 | 72 | 123 | 1.0 | 3.0 | 0.00 | 0.00 | 0.00 | 91 | 1011.9 |
| 20260505100558 | 72 | 190 | 1.0 | 3.0 | 0.00 | 0.00 | 0.00 | 91 | 1011.9 |
| 20260505100458 | 72 | 192 | 2.0 | 3.0 | 0.00 | 0.00 | 0.00 | 91 | 1011.9 |
| 20260505100355 | 72 | 213 | 2.0 | 4.0 | 0.00 | 0.00 | 0.00 | 91 | 1011.9 |
| 20260505100254 | 72 | 120 | 1.0 | 4.0 | 0.00 | 0.00 | 0.00 | 91 | 1011.9 |
| 20260505100154 | 72 | 118 | 1.0 | 4.0 | 0.00 | 0.00 | 0.00 | 91 | 1011.9 |
| 20260505100053 | 72 | 117 | 1.0 | 4.0 | 0.00 | 0.00 | 0.00 | 91 | 1011.9 |